Wetterdaten: Montag, 04.11.2019
Datum Zeit Temp. Aussen Temp. o. S. Temp +5cm Feuchte Auss Luftdruck Regen Sonnenschein Regendauer Solar Windben Empfang
04.11.2019 00:00 11,1 C 10,0 C 9,4 C 98 % 987,1 hPa 0,0 l/m 0 min 2 min 0 W/m 12,9 km/h (3 Bft) 100,00 %
04.11.2019 00:02 11,1 C 10,0 C 9,4 C 98 % 987,2 hPa 0,0 l/m 0 min 2 min 0 W/m 9,7 km/h (2 Bft) 100,00 %
04.11.2019 00:04 11,1 C 9,4 C 9,4 C 98 % 987,2 hPa 0,0 l/m 0 min 2 min 0 W/m 12,9 km/h (3 Bft) 100,00 %
04.11.2019 00:08 11,1 C 9,4 C 9,4 C 98 % 987,3 hPa 0,0 l/m 0 min 4 min 0 W/m 12,9 km/h (3 Bft) 100,00 %
04.11.2019 00:10 11,0 C 9,4 C 9,4 C 98 % 987,3 hPa 0,2 l/m 0 min 2 min 0 W/m 12,9 km/h (3 Bft) 100,00 %
04.11.2019 00:12 11,0 C 9,4 C 9,4 C 98 % 987,4 hPa 0,0 l/m 0 min 2 min 0 W/m 12,9 km/h (3 Bft) 100,00 %
04.11.2019 00:14 10,9 C 9,4 C 9,4 C 98 % 987,4 hPa 0,2 l/m 0 min 2 min 0 W/m 16,1 km/h (3 Bft) 100,00 %
04.11.2019 00:16 10,9 C 9,4 C 9,4 C 98 % 987,5 hPa 0,0 l/m 0 min 0 min 0 W/m 16,1 km/h (3 Bft) 100,00 %
04.11.2019 00:18 10,9 C 9,4 C 9,4 C 98 % 987,5 hPa 0,0 l/m 0 min 0 min 0 W/m 16,1 km/h (3 Bft) 97,87 %
04.11.2019 00:20 10,8 C 9,4 C 8,9 C 98 % 987,5 hPa 0,0 l/m 0 min 0 min 0 W/m 12,9 km/h (3 Bft) 100,00 %
04.11.2019 00:22 10,8 C 9,4 C 8,9 C 98 % 987,6 hPa 0,0 l/m 0 min 0 min 0 W/m 19,3 km/h (3 Bft) 100,00 %
04.11.2019 00:24 10,8 C 9,4 C 8,9 C 98 % 987,7 hPa 0,0 l/m 0 min 0 min 0 W/m 19,3 km/h (3 Bft) 100,00 %
04.11.2019 00:26 10,7 C 8,9 C 8,9 C 98 % 987,7 hPa 0,0 l/m 0 min 0 min 0 W/m 12,9 km/h (3 Bft) 100,00 %
04.11.2019 00:28 10,6 C 8,9 C 8,9 C 98 % 987,7 hPa 0,0 l/m 0 min 0 min 0 W/m 16,1 km/h (3 Bft) 100,00 %
04.11.2019 00:30 10,6 C 8,9 C 8,9 C 98 % 987,7 hPa 0,0 l/m 0 min 0 min 0 W/m 16,1 km/h (3 Bft) 97,87 %
04.11.2019 00:32 10,6 C 8,9 C 8,9 C 98 % 987,8 hPa 0,0 l/m 0 min 0 min 0 W/m 12,9 km/h (3 Bft) 97,83 %
04.11.2019 00:34 10,5 C 8,9 C 8,9 C 98 % 987,8 hPa 0,0 l/m 0 min 0 min 0 W/m 12,9 km/h (3 Bft) 100,00 %
04.11.2019 00:36 10,4 C 8,9 C 8,9 C 98 % 987,8 hPa 0,0 l/m 0 min 0 min 0 W/m 12,9 km/h (3 Bft) 97,87 %
04.11.2019 00:38 10,4 C 8,9 C 8,9 C 97 % 987,9 hPa 0,0 l/m 0 min 0 min 0 W/m 9,7 km/h (2 Bft) 100,00 %
04.11.2019 00:40 10,4 C 8,9 C 8,9 C 97 % 987,9 hPa 0,0 l/m 0 min 0 min 0 W/m 9,7 km/h (2 Bft) 74,47 %
04.11.2019 00:42 10,3 C 8,9 C 8,9 C 97 % 988,0 hPa 0,0 l/m 0 min 0 min 0 W/m 6,4 km/h (2 Bft) 52,94 %
04.11.2019 00:44 10,3 C 8,9 C 8,3 C 97 % 988,0 hPa 0,0 l/m 0 min 0 min 0 W/m 22,5 km/h (4 Bft) 95,65 %
04.11.2019 00:46 10,2 C 8,9 C 8,3 C 98 % 987,9 hPa 0,0 l/m 0 min 0 min 0 W/m 9,7 km/h (2 Bft) 95,74 %
04.11.2019 00:48 10,2 C 8,9 C 8,3 C 98 % 988,0 hPa 0,0 l/m 0 min 0 min 0 W/m 12,9 km/h (3 Bft) 95,74 %
04.11.2019 00:50 10,2 C 8,9 C 8,3 C 98 % 988,1 hPa 0,0 l/m 0 min 0 min 0 W/m 3,2 km/h (1 Bft) 95,74 %
04.11.2019 00:52 10,2 C 8,9 C 8,3 C 98 % 988,1 hPa 0,0 l/m 0 min 0 min 0 W/m 12,9 km/h (3 Bft) 95,74 %
04.11.2019 00:54 10,1 C 8,9 C 8,3 C 98 % 988,1 hPa 0,0 l/m 0 min 0 min 0 W/m 6,4 km/h (2 Bft) 95,65 %
04.11.2019 00:56 10,1 C 8,9 C 8,3 C 98 % 988,1 hPa 0,0 l/m 0 min 0 min 0 W/m 12,9 km/h (3 Bft) 95,74 %
04.11.2019 00:58 10,1 C 8,9 C 8,3 C 98 % 988,2 hPa 0,0 l/m 0 min 0 min 0 W/m 9,7 km/h (2 Bft) 95,74 %
04.11.2019 01:00 10,1 C 8,9 C 8,3 C 97 % 988,2 hPa 0,0 l/m 0 min 0 min 0 W/m 16,1 km/h (3 Bft) 95,74 %
04.11.2019 01:02 10,0 C 8,3 C 8,3 C 97 % 988,1 hPa 0,0 l/m 0 min 0 min 0 W/m 6,4 km/h (2 Bft) 95,74 %
04.11.2019 01:04 10,0 C 8,3 C 8,3 C 97 % 988,1 hPa 0,0 l/m 0 min 0 min 0 W/m 6,4 km/h (2 Bft) 95,74 %
04.11.2019 01:06 9,9 C 8,3 C 8,3 C 97 % 988,2 hPa 0,0 l/m 0 min 0 min 0 W/m 6,4 km/h (2 Bft) 93,48 %
04.11.2019 01:08 9,9 C 8,3 C 8,3 C 97 % 988,2 hPa 0,0 l/m 0 min 0 min 0 W/m 3,2 km/h (1 Bft) 95,74 %
04.11.2019 01:10 9,9 C 8,3 C 8,3 C 98 % 988,2 hPa 0,0 l/m 0 min 0 min 0 W/m 12,9 km/h (3 Bft) 95,74 %
04.11.2019 01:12 9,9 C 8,3 C 8,3 C 98 % 988,2 hPa 0,0 l/m 0 min 0 min 0 W/m 6,4 km/h (2 Bft) 91,49 %
04.11.2019 01:14 9,9 C 8,3 C 8,3 C 98 % 988,4 hPa 0,0 l/m 0 min 0 min 0 W/m 6,4 km/h (2 Bft) 95,74 %
04.11.2019 01:16 9,8 C 8,3 C 8,3 C 98 % 988,3 hPa 0,0 l/m 0 min 0 min 0 W/m 3,2 km/h (1 Bft) 93,62 %
04.11.2019 01:18 9,8 C 8,3 C 8,3 C 98 % 988,4 hPa 0,0 l/m 0 min 0 min 0 W/m 6,4 km/h (2 Bft) 95,65 %
04.11.2019 01:20 9,8 C 8,3 C 8,3 C 98 % 988,4 hPa 0,0 l/m 0 min 0 min 0 W/m 3,2 km/h (1 Bft) 95,74 %
04.11.2019 01:22 9,8 C 8,3 C 8,3 C 98 % 988,4 hPa 0,0 l/m 0 min 0 min 0 W/m 0,0 km/h (0 Bft) 95,74 %
04.11.2019 01:24 9,8 C 8,3 C 8,3 C 98 % 988,4 hPa 0,0 l/m 0 min 0 min 0 W/m 0,0 km/h (0 Bft) 97,87 %
04.11.2019 01:26 9,8 C 8,9 C 8,3 C 98 % 988,4 hPa 0,0 l/m 0 min 0 min 0 W/m 3,2 km/h (1 Bft) 95,74 %
04.11.2019 01:28 9,8 C 8,9 C 8,3 C 98 % 988,4 hPa 0,0 l/m 0 min 0 min 0 W/m 3,2 km/h (1 Bft) 95,74 %
04.11.2019 01:30 9,8 C 8,9 C 8,3 C 98 % 988,4 hPa 0,0 l/m 0 min 0 min 0 W/m 6,4 km/h (2 Bft) 95,65 %
04.11.2019 01:32 9,8 C 8,9 C 8,3 C 98 % 988,5 hPa 0,0 l/m 0 min 0 min 0 W/m 3,2 km/h (1 Bft) 95,74 %
04.11.2019 01:34 9,8 C 8,9 C 8,3 C 98 % 988,5 hPa 0,0 l/m 0 min 0 min 0 W/m 12,9 km/h (3 Bft) 95,74 %
04.11.2019 01:36 9,8 C 8,9 C 8,3 C 98 % 988,5 hPa 0,0 l/m 0 min 0 min 0 W/m 6,4 km/h (2 Bft) 93,62 %
04.11.2019 01:38 9,8 C 8,9 C 8,3 C 98 % 988,5 hPa 0,0 l/m 0 min 0 min 0 W/m 9,7 km/h (2 Bft) 95,74 %
04.11.2019 01:40 9,8 C 8,9 C 8,3 C 98 % 988,5 hPa 0,0 l/m 0 min 0 min 0 W/m 12,9 km/h (3 Bft) 95,74 %
04.11.2019 01:42 9,8 C 8,9 C 8,3 C 98 % 988,5 hPa 0,0 l/m 0 min 0 min 0 W/m 12,9 km/h (3 Bft) 95,65 %
04.11.2019 01:44 9,8 C 8,9 C 8,3 C 98 % 988,5 hPa 0,0 l/m 0 min 0 min 0 W/m 12,9 km/h (3 Bft) 95,74 %
04.11.2019 01:46 9,8 C 8,9 C 8,3 C 98 % 988,5 hPa 0,0 l/m 0 min 2 min 0 W/m 12,9 km/h (3 Bft) 97,87 %
04.11.2019 01:48 9,9 C 8,9 C 8,3 C 98 % 988,5 hPa 0,0 l/m 0 min 0 min 0 W/m 6,4 km/h (2 Bft) 95,74 %
04.11.2019 01:50 9,9 C 8,9 C 8,3 C 98 % 988,4 hPa 0,0 l/m 0 min 0 min 0 W/m 12,9 km/h (3 Bft) 97,87 %
04.11.2019 01:52 9,9 C 8,9 C 8,3 C 98 % 988,5 hPa 0,0 l/m 0 min 0 min 0 W/m 16,1 km/h (3 Bft) 95,65 %
04.11.2019 01:54 9,9 C 8,9 C 8,3 C 98 % 988,5 hPa 0,0 l/m 0 min 0 min 0 W/m 12,9 km/h (3 Bft) 95,74 %
04.11.2019 01:56 9,9 C 8,9 C 8,3 C 98 % 988,5 hPa 0,0 l/m 0 min 0 min 0 W/m 16,1 km/h (3 Bft) 97,87 %
04.11.2019 01:58 9,9 C 8,9 C 8,3 C 98 % 988,5 hPa 0,0 l/m 0 min 0 min 0 W/m 12,9 km/h (3 Bft) 97,87 %
04.11.2019 02:00 9,9 C 8,9 C 8,3 C 98 % 988,5 hPa 0,0 l/m 0 min 0 min 0 W/m 12,9 km/h (3 Bft) 93,62 %
04.11.2019 02:02 9,9 C 8,9 C 8,3 C 98 % 988,5 hPa 0,0 l/m 0 min 0 min 0 W/m 12,9 km/h (3 Bft) 97,87 %
04.11.2019 02:04 9,9 C 8,9 C 8,3 C 98 % 988,5 hPa 0,0 l/m 0 min 0 min 0 W/m 12,9 km/h (3 Bft) 97,83 %
04.11.2019 02:06 9,9 C 8,9 C 8,3 C 98 % 988,5 hPa 0,0 l/m 0 min 0 min 0 W/m 12,9 km/h (3 Bft) 97,87 %
04.11.2019 02:08 9,9 C 8,9 C 8,3 C 98 % 988,5 hPa 0,0 l/m 0 min 0 min 0 W/m 12,9 km/h (3 Bft) 93,62 %
04.11.2019 02:10 9,9 C 8,9 C 8,3 C 98 % 988,5 hPa 0,0 l/m 0 min 0 min 0 W/m 12,9 km/h (3 Bft) 97,87 %
04.11.2019 02:12 9,9 C 8,9 C 8,3 C 98 % 988,5 hPa 0,0 l/m 0 min 0 min 0 W/m 9,7 km/h (2 Bft) 97,87 %
04.11.2019 02:14 9,9 C 8,9 C 8,3 C 98 % 988,4 hPa 0,0 l/m 0 min 0 min 0 W/m 16,1 km/h (3 Bft) 97,87 %
04.11.2019 02:16 9,9 C 8,9 C 8,3 C 98 % 988,5 hPa 0,0 l/m 0 min 0 min 0 W/m 12,9 km/h (3 Bft) 97,83 %
04.11.2019 02:18 9,9 C 8,9 C 8,9 C 98 % 988,5 hPa 0,0 l/m 0 min 0 min 0 W/m 12,9 km/h (3 Bft) 100,00 %
04.11.2019 02:20 9,9 C 8,9 C 8,3 C 98 % 988,5 hPa 0,0 l/m 0 min 0 min 0 W/m 12,9 km/h (3 Bft) 100,00 %
04.11.2019 02:22 9,9 C 8,9 C 8,3 C 98 % 988,4 hPa 0,0 l/m 0 min 0 min 0 W/m 6,4 km/h (2 Bft) 97,87 %
04.11.2019 02:24 9,9 C 8,9 C 8,3 C 98 % 988,4 hPa 0,0 l/m 0 min 0 min 0 W/m 12,9 km/h (3 Bft) 100,00 %
04.11.2019 02:26 9,9 C 8,9 C 8,3 C 98 % 988,4 hPa 0,0 l/m 0 min 0 min 0 W/m 19,3 km/h (3 Bft) 100,00 %
04.11.2019 02:28 9,9 C 8,9 C 8,3 C 98 % 988,5 hPa 0,0 l/m 0 min 0 min 0 W/m 16,1 km/h (3 Bft) 100,00 %
04.11.2019 02:30 9,9 C 8,9 C 8,3 C 98 % 988,5 hPa 0,0 l/m 0 min 0 min 0 W/m 12,9 km/h (3 Bft) 100,00 %
04.11.2019 02:32 9,9 C 8,9 C 8,3 C 98 % 988,5 hPa 0,0 l/m 0 min 0 min 0 W/m 19,3 km/h (3 Bft) 97,87 %
04.11.2019 02:34 9,9 C 8,9 C 8,3 C 98 % 988,5 hPa 0,0 l/m 0 min 0 min 0 W/m 16,1 km/h (3 Bft) 100,00 %
04.11.2019 02:36 9,9 C 8,9 C 8,3 C 98 % 988,5 hPa 0,0 l/m 0 min 0 min 0 W/m 12,9 km/h (3 Bft) 95,74 %
04.11.2019 02:38 9,9 C 8,9 C 8,3 C 98 % 988,5 hPa 0,0 l/m 0 min 0 min 0 W/m 16,1 km/h (3 Bft) 57,45 %
04.11.2019 02:40 9,9 C 8,9 C 8,3 C 98 % 988,5 hPa 0,0 l/m 0 min 0 min 0 W/m 16,1 km/h (3 Bft) 100,00 %
04.11.2019 02:42 9,9 C 8,9 C 8,3 C 98 % 988,5 hPa 0,0 l/m 0 min 0 min 0 W/m 3,2 km/h (1 Bft) 100,00 %
04.11.2019 02:44 9,9 C 8,9 C 8,3 C 98 % 988,5 hPa 0,0 l/m 0 min 0 min 0 W/m 16,1 km/h (3 Bft) 100,00 %
04.11.2019 02:46 9,9 C 8,9 C 8,3 C 98 % 988,4 hPa 0,0 l/m 0 min 0 min 0 W/m 12,9 km/h (3 Bft) 100,00 %
04.11.2019 02:48 9,9 C 8,9 C 8,3 C 98 % 988,4 hPa 0,0 l/m 0 min 0 min 0 W/m 6,4 km/h (2 Bft) 97,87 %
04.11.2019 02:50 9,9 C 8,9 C 8,3 C 98 % 988,4 hPa 0,0 l/m 0 min 0 min 0 W/m 16,1 km/h (3 Bft) 100,00 %
04.11.2019 02:52 9,9 C 8,9 C 8,3 C 98 % 988,4 hPa 0,0 l/m 0 min 0 min 0 W/m 6,4 km/h (2 Bft) 100,00 %
04.11.2019 02:54 9,9 C 8,9 C 8,3 C 98 % 988,3 hPa 0,0 l/m 0 min 0 min 0 W/m 12,9 km/h (3 Bft) 97,87 %
04.11.2019 02:56 9,9 C 8,9 C 8,3 C 98 % 988,3 hPa 0,0 l/m 0 min 0 min 0 W/m 6,4 km/h (2 Bft) 100,00 %
04.11.2019 02:58 9,9 C 8,9 C 8,3 C 98 % 988,3 hPa 0,0 l/m 0 min 0 min 0 W/m 6,4 km/h (2 Bft) 97,87 %
04.11.2019 03:00 9,9 C 8,9 C 8,3 C 98 % 988,4 hPa 0,0 l/m 0 min 0 min 0 W/m 0,0 km/h (0 Bft) 100,00 %
04.11.2019 03:02 9,9 C 8,9 C 8,3 C 98 % 988,3 hPa 0,0 l/m 0 min 0 min 0 W/m 6,4 km/h (2 Bft) 100,00 %
04.11.2019 03:04 9,8 C 8,9 C 8,3 C 98 % 988,3 hPa 0,0 l/m 0 min 0 min 0 W/m 12,9 km/h (3 Bft) 100,00 %
04.11.2019 03:06 9,8 C 8,9 C 8,3 C 98 % 988,2 hPa 0,0 l/m 0 min 0 min 0 W/m 6,4 km/h (2 Bft) 97,87 %
04.11.2019 03:08 9,8 C 8,3 C 8,3 C 98 % 988,2 hPa 0,0 l/m 0 min 0 min 0 W/m 6,4 km/h (2 Bft) 97,87 %
04.11.2019 03:10 9,8 C 8,3 C 8,3 C 98 % 988,2 hPa 0,0 l/m 0 min 0 min 0 W/m 6,4 km/h (2 Bft) 100,00 %
04.11.2019 03:12 9,8 C 8,3 C 7,8 C 98 % 988,2 hPa 0,0 l/m 0 min 0 min 0 W/m 3,2 km/h (1 Bft) 100,00 %
04.11.2019 03:14 9,8 C 8,3 C 7,8 C 98 % 988,2 hPa 0,0 l/m 0 min 0 min 0 W/m 6,4 km/h (2 Bft) 100,00 %
04.11.2019 03:16 9,8 C 8,3 C 7,8 C 98 % 988,2 hPa 0,0 l/m 0 min 0 min 0 W/m 6,4 km/h (2 Bft) 100,00 %
04.11.2019 03:18 9,7 C 8,3 C 7,8 C 98 % 988,2 hPa 0,0 l/m 0 min 0 min 0 W/m 3,2 km/h (1 Bft) 100,00 %
04.11.2019 03:20 9,7 C 8,3 C 7,8 C 98 % 988,2 hPa 0,0 l/m 0 min 0 min 0 W/m 0,0 km/h (0 Bft) 100,00 %
04.11.2019 03:22 9,7 C 8,3 C 7,8 C 98 % 988,2 hPa 0,0 l/m 0 min 0 min 0 W/m 6,4 km/h (2 Bft) 100,00 %
04.11.2019 03:24 9,7 C 8,3 C 7,8 C 98 % 988,2 hPa 0,0 l/m 0 min 0 min 0 W/m 6,4 km/h (2 Bft) 100,00 %
04.11.2019 03:26 9,7 C 8,3 C 7,8 C 98 % 988,1 hPa 0,0 l/m 0 min 0 min 0 W/m 6,4 km/h (2 Bft) 97,83 %
04.11.2019 03:28 9,6 C 8,3 C 7,8 C 98 % 988,2 hPa 0,0 l/m 0 min 0 min 0 W/m 3,2 km/h (1 Bft) 97,87 %
04.11.2019 03:30 9,6 C 8,3 C 7,8 C 98 % 988,2 hPa 0,0 l/m 0 min 0 min 0 W/m 12,9 km/h (3 Bft) 100,00 %
04.11.2019 03:32 9,6 C 8,3 C 7,8 C 98 % 988,2 hPa 0,0 l/m 0 min 0 min 0 W/m 6,4 km/h (2 Bft) 100,00 %
04.11.2019 03:34 9,6 C 8,3 C 7,8 C 98 % 988,2 hPa 0,0 l/m 0 min 0 min 0 W/m 6,4 km/h (2 Bft) 100,00 %
04.11.2019 03:36 9,5 C 8,3 C 7,8 C 98 % 988,2 hPa 0,0 l/m 0 min 0 min 0 W/m 6,4 km/h (2 Bft) 97,87 %
04.11.2019 03:38 9,5 C 8,3 C 7,8 C 98 % 988,2 hPa 0,0 l/m 0 min 0 min 0 W/m 3,2 km/h (1 Bft) 97,83 %
04.11.2019 03:40 9,4 C 8,3 C 7,8 C 98 % 988,2 hPa 0,0 l/m 0 min 0 min 0 W/m 6,4 km/h (2 Bft) 97,87 %
04.11.2019 03:42 9,4 C 8,3 C 7,8 C 98 % 988,3 hPa 0,0 l/m 0 min 0 min 0 W/m 0,0 km/h (0 Bft) 97,87 %
04.11.2019 03:44 9,4 C 8,3 C 7,8 C 98 % 988,2 hPa 0,0 l/m 0 min 0 min 0 W/m 0,0 km/h (0 Bft) 97,87 %
04.11.2019 03:46 9,4 C 8,3 C 7,8 C 98 % 988,2 hPa 0,0 l/m 0 min 0 min 0 W/m 0,0 km/h (0 Bft) 97,87 %
04.11.2019 03:48 9,4 C 8,3 C 7,8 C 98 % 988,2 hPa 0,0 l/m 0 min 0 min 0 W/m 6,4 km/h (2 Bft) 97,83 %
04.11.2019 03:50 9,4 C 8,3 C 7,8 C 98 % 988,2 hPa 0,0 l/m 0 min 0 min 0 W/m 6,4 km/h (2 Bft) 97,87 %
04.11.2019 03:52 9,4 C 8,3 C 7,8 C 98 % 988,2 hPa 0,0 l/m 0 min 0 min 0 W/m 6,4 km/h (2 Bft) 97,87 %
04.11.2019 03:54 9,4 C 8,3 C 7,8 C 98 % 988,2 hPa 0,0 l/m 0 min 0 min 0 W/m 6,4 km/h (2 Bft) 97,87 %
04.11.2019 03:56 9,3 C 8,3 C 7,8 C 98 % 988,2 hPa 0,0 l/m 0 min 0 min 0 W/m 6,4 km/h (2 Bft) 97,87 %
04.11.2019 03:58 9,3 C 8,3 C 7,8 C 98 % 988,1 hPa 0,0 l/m 0 min 0 min 0 W/m 6,4 km/h (2 Bft) 95,83 %
04.11.2019 04:00 9,3 C 8,3 C 7,8 C 98 % 988,1 hPa 0,0 l/m 0 min 0 min 0 W/m 6,4 km/h (2 Bft) 97,83 %
04.11.2019 04:02 9,3 C 8,3 C 7,8 C 98 % 988,1 hPa 0,0 l/m 0 min 0 min 0 W/m 6,4 km/h (2 Bft) 88,57 %
04.11.2019 04:04 9,3 C 8,3 C 7,8 C 98 % 988,1 hPa 0,0 l/m 0 min 0 min 0 W/m 6,4 km/h (2 Bft) 97,87 %
04.11.2019 04:06 9,3 C 8,3 C 7,8 C 98 % 988,1 hPa 0,0 l/m 0 min 0 min 0 W/m 6,4 km/h (2 Bft) 95,74 %
04.11.2019 04:08 9,3 C 8,3 C 7,8 C 98 % 988,1 hPa 0,0 l/m 0 min 0 min 0 W/m 12,9 km/h (3 Bft) 95,74 %
04.11.2019 04:10 9,3 C 8,3 C 7,8 C 98 % 988,1 hPa 0,0 l/m 0 min 0 min 0 W/m 12,9 km/h (3 Bft) 93,62 %
04.11.2019 04:12 9,3 C 8,3 C 7,8 C 98 % 988,1 hPa 0,0 l/m 0 min 0 min 0 W/m 12,9 km/h (3 Bft) 93,48 %
04.11.2019 04:14 9,3 C 8,3 C 7,8 C 98 % 988,2 hPa 0,0 l/m 0 min 0 min 0 W/m 6,4 km/h (2 Bft) 93,62 %
04.11.2019 04:16 9,3 C 8,3 C 7,8 C 98 % 988,2 hPa 0,0 l/m 0 min 0 min 0 W/m 6,4 km/h (2 Bft) 93,62 %
04.11.2019 04:18 9,3 C 8,3 C 7,8 C 98 % 988,1 hPa 0,0 l/m 0 min 0 min 0 W/m 6,4 km/h (2 Bft) 91,49 %
04.11.2019 04:20 9,3 C 8,3 C 7,8 C 98 % 988,1 hPa 0,0 l/m 0 min 0 min 0 W/m 6,4 km/h (2 Bft) 93,62 %
04.11.2019 04:22 9,3 C 8,3 C 7,8 C 98 % 988,1 hPa 0,0 l/m 0 min 0 min 0 W/m 3,2 km/h (1 Bft) 95,74 %
04.11.2019 04:24 9,3 C 8,3 C 7,8 C 98 % 988,1 hPa 0,0 l/m 0 min 0 min 0 W/m 6,4 km/h (2 Bft) 95,65 %
04.11.2019 04:26 9,4 C 8,3 C 7,8 C 98 % 988,1 hPa 0,0 l/m 0 min 0 min 0 W/m 6,4 km/h (2 Bft) 95,74 %
04.11.2019 04:28 9,4 C 8,3 C 7,8 C 98 % 988,1 hPa 0,0 l/m 0 min 0 min 0 W/m 3,2 km/h (1 Bft) 95,74 %
04.11.2019 04:30 9,4 C 8,3 C 7,8 C 98 % 988,1 hPa 0,0 l/m 0 min 0 min 0 W/m 6,4 km/h (2 Bft) 95,74 %
04.11.2019 04:32 9,4 C 8,3 C 7,8 C 98 % 988,1 hPa 0,0 l/m 0 min 0 min 0 W/m 6,4 km/h (2 Bft) 95,74 %
04.11.2019 04:34 9,4 C 8,3 C 7,8 C 98 % 988,1 hPa 0,0 l/m 0 min 0 min 0 W/m 12,9 km/h (3 Bft) 93,48 %
04.11.2019 04:36 9,4 C 8,9 C 8,3 C 98 % 988,1 hPa 0,0 l/m 0 min 0 min 0 W/m 6,4 km/h (2 Bft) 93,62 %
04.11.2019 04:38 9,4 C 8,9 C 8,3 C 98 % 988,2 hPa 0,0 l/m 0 min 0 min 0 W/m 6,4 km/h (2 Bft) 95,74 %
04.11.2019 04:40 9,4 C 8,9 C 8,3 C 98 % 988,2 hPa 0,0 l/m 0 min 0 min 0 W/m 12,9 km/h (3 Bft) 95,74 %
04.11.2019 04:42 9,4 C 8,9 C 8,3 C 98 % 988,2 hPa 0,0 l/m 0 min 0 min 0 W/m 6,4 km/h (2 Bft) 95,74 %
04.11.2019 04:44 9,4 C 8,9 C 8,3 C 98 % 988,2 hPa 0,0 l/m 0 min 0 min 0 W/m 6,4 km/h (2 Bft) 95,74 %
04.11.2019 04:46 9,4 C 8,9 C 8,3 C 98 % 988,3 hPa 0,0 l/m 0 min 0 min 0 W/m 6,4 km/h (2 Bft) 95,65 %
04.11.2019 04:48 9,4 C 8,9 C 8,3 C 98 % 988,2 hPa 0,0 l/m 0 min 0 min 0 W/m 6,4 km/h (2 Bft) 97,87 %
04.11.2019 04:50 9,5 C 8,9 C 8,3 C 98 % 988,2 hPa 0,0 l/m 0 min 0 min 0 W/m 3,2 km/h (1 Bft) 95,74 %
04.11.2019 04:52 9,5 C 8,9 C 8,3 C 98 % 988,3 hPa 0,0 l/m 0 min 0 min 0 W/m 12,9 km/h (3 Bft) 95,74 %
04.11.2019 04:54 9,5 C 8,9 C 8,3 C 98 % 988,4 hPa 0,0 l/m 0 min 0 min 0 W/m 12,9 km/h (3 Bft) 93,62 %
04.11.2019 04:56 9,5 C 8,9 C 8,3 C 98 % 988,4 hPa 0,0 l/m 0 min 0 min 0 W/m 12,9 km/h (3 Bft) 95,74 %
04.11.2019 04:58 9,6 C 8,9 C 8,3 C 98 % 988,4 hPa 0,0 l/m 0 min 0 min 0 W/m 12,9 km/h (3 Bft) 97,83 %
04.11.2019 05:00 9,6 C 8,9 C 8,3 C 98 % 988,4 hPa 0,0 l/m 0 min 0 min 0 W/m 6,4 km/h (2 Bft) 97,87 %
04.11.2019 05:02 9,6 C 8,9 C 8,3 C 98 % 988,4 hPa 0,0 l/m 0 min 0 min 0 W/m 16,1 km/h (3 Bft) 100,00 %
04.11.2019 05:04 9,6 C 8,9 C 8,3 C 98 % 988,5 hPa 0,0 l/m 0 min 0 min 0 W/m 16,1 km/h (3 Bft) 97,87 %
04.11.2019 05:06 9,6 C 8,9 C 8,3 C 98 % 988,5 hPa 0,0 l/m 0 min 2 min 0 W/m 16,1 km/h (3 Bft) 97,87 %
04.11.2019 05:08 9,6 C 8,9 C 8,3 C 98 % 988,5 hPa 0,0 l/m 0 min 0 min 0 W/m 16,1 km/h (3 Bft) 100,00 %
04.11.2019 05:10 9,7 C 8,9 C 8,3 C 98 % 988,5 hPa 0,0 l/m 0 min 0 min 0 W/m 16,1 km/h (3 Bft) 100,00 %
04.11.2019 05:12 9,7 C 8,9 C 8,3 C 98 % 988,5 hPa 0,0 l/m 0 min 0 min 0 W/m 16,1 km/h (3 Bft) 97,87 %
04.11.2019 05:14 9,7 C 8,9 C 8,3 C 98 % 988,5 hPa 0,0 l/m 0 min 0 min 0 W/m 12,9 km/h (3 Bft) 100,00 %
04.11.2019 05:16 9,8 C 8,9 C 8,3 C 98 % 988,5 hPa 0,0 l/m 0 min 0 min 0 W/m 22,5 km/h (4 Bft) 97,87 %
04.11.2019 05:18 9,8 C 8,9 C 8,3 C 98 % 988,5 hPa 0,0 l/m 0 min 0 min 0 W/m 16,1 km/h (3 Bft) 100,00 %
04.11.2019 05:20 9,8 C 8,9 C 8,3 C 98 % 988,5 hPa 0,0 l/m 0 min 0 min 0 W/m 16,1 km/h (3 Bft) 100,00 %
04.11.2019 05:22 9,9 C 8,9 C 8,9 C 98 % 988,6 hPa 0,0 l/m 0 min 0 min 0 W/m 12,9 km/h (3 Bft) 100,00 %
04.11.2019 05:24 9,9 C 8,9 C 8,9 C 98 % 988,6 hPa 0,0 l/m 0 min 2 min 0 W/m 16,1 km/h (3 Bft) 100,00 %
04.11.2019 05:26 9,9 C 8,9 C 8,9 C 99 % 988,6 hPa 0,0 l/m 0 min 0 min 0 W/m 16,1 km/h (3 Bft) 100,00 %
04.11.2019 05:28 9,9 C 8,9 C 8,9 C 99 % 988,6 hPa 0,0 l/m 0 min 2 min 0 W/m 19,3 km/h (3 Bft) 100,00 %
04.11.2019 05:30 10,0 C 8,9 C 8,9 C 99 % 988,6 hPa 0,2 l/m 0 min 2 min 0 W/m 19,3 km/h (3 Bft) 100,00 %
04.11.2019 05:32 10,0 C 8,9 C 8,9 C 99 % 988,6 hPa 0,0 l/m 0 min 2 min 0 W/m 22,5 km/h (4 Bft) 100,00 %
04.11.2019 05:34 10,1 C 8,9 C 8,9 C 99 % 988,6 hPa 0,2 l/m 0 min 2 min 0 W/m 16,1 km/h (3 Bft) 100,00 %
04.11.2019 05:36 10,1 C 8,9 C 8,9 C 99 % 988,6 hPa 0,0 l/m 0 min 2 min 0 W/m 22,5 km/h (4 Bft) 100,00 %
04.11.2019 05:38 10,1 C 8,9 C 8,9 C 99 % 988,6 hPa 0,0 l/m 0 min 0 min 0 W/m 16,1 km/h (3 Bft) 100,00 %
04.11.2019 05:40 10,1 C 8,9 C 8,9 C 99 % 988,5 hPa 0,0 l/m 0 min 0 min 0 W/m 6,4 km/h (2 Bft) 100,00 %
04.11.2019 05:42 10,1 C 8,9 C 8,9 C 99 % 988,5 hPa 0,0 l/m 0 min 0 min 0 W/m 12,9 km/h (3 Bft) 100,00 %
04.11.2019 05:44 10,1 C 8,9 C 8,9 C 99 % 988,6 hPa 0,0 l/m 0 min 0 min 0 W/m 19,3 km/h (3 Bft) 100,00 %
04.11.2019 05:46 10,1 C 8,9 C 8,9 C 99 % 988,6 hPa 0,0 l/m 0 min 0 min 0 W/m 22,5 km/h (4 Bft) 100,00 %
04.11.2019 05:48 10,1 C 9,4 C 8,9 C 99 % 988,5 hPa 0,0 l/m 0 min 2 min 0 W/m 19,3 km/h (3 Bft) 100,00 %
04.11.2019 05:50 10,2 C 9,4 C 8,9 C 99 % 988,6 hPa 0,0 l/m 0 min 0 min 0 W/m 19,3 km/h (3 Bft) 100,00 %
04.11.2019 05:52 10,2 C 8,9 C 8,9 C 99 % 988,6 hPa 0,2 l/m 0 min 0 min 0 W/m 25,7 km/h (4 Bft) 100,00 %
04.11.2019 05:54 10,2 C 8,9 C 8,9 C 99 % 988,6 hPa 0,0 l/m 0 min 0 min 0 W/m 32,2 km/h (5 Bft) 100,00 %
04.11.2019 05:56 10,2 C 8,9 C 8,9 C 99 % 988,6 hPa 0,0 l/m 0 min 2 min 0 W/m 16,1 km/h (3 Bft) 97,83 %
04.11.2019 05:58 10,2 C 8,9 C 8,9 C 99 % 988,7 hPa 0,0 l/m 0 min 0 min 0 W/m 22,5 km/h (4 Bft) 100,00 %
04.11.2019 06:00 10,2 C 8,9 C 8,9 C 99 % 988,6 hPa 0,0 l/m 0 min 0 min 0 W/m 22,5 km/h (4 Bft) 100,00 %
04.11.2019 06:02 10,2 C 8,9 C 8,9 C 99 % 988,6 hPa 0,0 l/m 0 min 0 min 0 W/m 22,5 km/h (4 Bft) 97,87 %
04.11.2019 06:04 10,2 C 8,9 C 8,9 C 99 % 988,6 hPa 0,0 l/m 0 min 0 min 0 W/m 22,5 km/h (4 Bft) 97,87 %
04.11.2019 06:08 10,2 C 8,9 C 8,9 C 99 % 988,6 hPa 0,0 l/m 0 min 4 min 0 W/m 16,1 km/h (3 Bft) 100,00 %
04.11.2019 06:10 10,2 C 8,9 C 8,9 C 99 % 988,6 hPa 0,0 l/m 0 min 2 min 0 W/m 12,9 km/h (3 Bft) 100,00 %
04.11.2019 06:12 10,2 C 8,9 C 8,9 C 99 % 988,7 hPa 0,2 l/m 0 min 2 min 0 W/m 16,1 km/h (3 Bft) 100,00 %
04.11.2019 06:14 10,2 C 8,9 C 8,9 C 99 % 988,6 hPa 0,0 l/m 0 min 2 min 0 W/m 16,1 km/h (3 Bft) 97,87 %
04.11.2019 06:16 10,2 C 8,9 C 8,9 C 99 % 988,6 hPa 0,2 l/m 0 min 2 min 0 W/m 16,1 km/h (3 Bft) 100,00 %
04.11.2019 06:18 10,2 C 8,9 C 8,9 C 99 % 988,6 hPa 0,0 l/m 0 min 2 min 0 W/m 16,1 km/h (3 Bft) 100,00 %
04.11.2019 06:20 10,2 C 8,9 C 8,9 C 99 % 988,6 hPa 0,0 l/m 0 min 2 min 0 W/m 16,1 km/h (3 Bft) 100,00 %
04.11.2019 06:22 10,2 C 8,9 C 8,9 C 99 % 988,6 hPa 0,0 l/m 0 min 0 min 0 W/m 16,1 km/h (3 Bft) 98,00 %
04.11.2019 06:24 10,1 C 8,9 C 8,9 C 99 % 988,5 hPa 0,0 l/m 0 min 0 min 0 W/m 16,1 km/h (3 Bft) 100,00 %
04.11.2019 06:26 10,1 C 8,9 C 8,9 C 99 % 988,5 hPa 0,0 l/m 0 min 0 min 0 W/m 12,9 km/h (3 Bft) 100,00 %
04.11.2019 06:28 10,1 C 8,9 C 8,9 C 99 % 988,5 hPa 0,0 l/m 0 min 0 min 0 W/m 12,9 km/h (3 Bft) 100,00 %
04.11.2019 06:30 10,1 C 8,9 C 8,9 C 99 % 988,5 hPa 0,0 l/m 0 min 0 min 0 W/m 16,1 km/h (3 Bft) 100,00 %
04.11.2019 06:32 10,1 C 8,9 C 8,9 C 99 % 988,5 hPa 0,0 l/m 0 min 0 min 0 W/m 19,3 km/h (3 Bft) 97,87 %
04.11.2019 06:34 10,1 C 8,9 C 8,9 C 99 % 988,5 hPa 0,0 l/m 0 min 0 min 0 W/m 16,1 km/h (3 Bft) 97,87 %
04.11.2019 06:36 10,1 C 8,9 C 8,9 C 99 % 988,5 hPa 0,0 l/m 0 min 0 min 0 W/m 19,3 km/h (3 Bft) 97,87 %
04.11.2019 06:38 10,1 C 8,9 C 8,9 C 99 % 988,5 hPa 0,0 l/m 0 min 0 min 0 W/m 12,9 km/h (3 Bft) 97,87 %
04.11.2019 06:40 10,1 C 8,9 C 8,9 C 99 % 988,4 hPa 0,0 l/m 0 min 0 min 0 W/m 12,9 km/h (3 Bft) 97,87 %
04.11.2019 06:42 10,0 C 8,9 C 8,3 C 99 % 988,5 hPa 0,0 l/m 0 min 0 min 0 W/m 16,1 km/h (3 Bft) 93,48 %
04.11.2019 06:44 10,0 C 8,9 C 8,3 C 99 % 988,5 hPa 0,0 l/m 0 min 0 min 0 W/m 12,9 km/h (3 Bft) 95,74 %
04.11.2019 06:46 10,0 C 8,9 C 8,3 C 99 % 988,4 hPa 0,0 l/m 0 min 0 min 0 W/m 12,9 km/h (3 Bft) 93,62 %
04.11.2019 06:48 9,9 C 8,9 C 8,3 C 99 % 988,5 hPa 0,0 l/m 0 min 0 min 0 W/m 6,4 km/h (2 Bft) 95,74 %
04.11.2019 06:50 9,9 C 8,9 C 8,3 C 99 % 988,5 hPa 0,0 l/m 0 min 0 min 0 W/m 12,9 km/h (3 Bft) 95,74 %
04.11.2019 06:52 9,9 C 8,3 C 8,3 C 99 % 988,5 hPa 0,0 l/m 0 min 0 min 0 W/m 6,4 km/h (2 Bft) 93,62 %
04.11.2019 06:54 9,8 C 8,3 C 8,3 C 99 % 988,5 hPa 0,0 l/m 0 min 0 min 0 W/m 12,9 km/h (3 Bft) 93,48 %
04.11.2019 06:56 9,8 C 8,3 C 8,3 C 99 % 988,5 hPa 0,0 l/m 0 min 0 min 0 W/m 9,7 km/h (2 Bft) 95,74 %
04.11.2019 06:58 9,8 C 8,3 C 8,3 C 99 % 988,5 hPa 0,0 l/m 0 min 0 min 0 W/m 12,9 km/h (3 Bft) 95,74 %
04.11.2019 07:00 9,8 C 8,3 C 8,3 C 99 % 988,5 hPa 0,0 l/m 0 min 0 min 0 W/m 16,1 km/h (3 Bft) 95,74 %
04.11.2019 07:02 9,7 C 8,3 C 8,3 C 99 % 988,5 hPa 0,0 l/m 0 min 0 min 0 W/m 6,4 km/h (2 Bft) 95,74 %
04.11.2019 07:04 9,7 C 8,3 C 8,3 C 99 % 988,5 hPa 0,0 l/m 0 min 0 min 0 W/m 6,4 km/h (2 Bft) 93,62 %
04.11.2019 07:06 9,7 C 8,3 C 7,8 C 99 % 988,5 hPa 0,0 l/m 0 min 0 min 0 W/m 16,1 km/h (3 Bft) 93,48 %
04.11.2019 07:08 9,7 C 8,3 C 7,8 C 99 % 988,6 hPa 0,0 l/m 0 min 0 min 0 W/m 16,1 km/h (3 Bft) 95,74 %
04.11.2019 07:10 9,6 C 8,3 C 7,8 C 99 % 988,6 hPa 0,0 l/m 0 min 0 min 0 W/m 12,9 km/h (3 Bft) 95,74 %
04.11.2019 07:12 9,6 C 8,3 C 7,8 C 99 % 988,6 hPa 0,0 l/m 0 min 0 min 0 W/m 19,3 km/h (3 Bft) 93,62 %
04.11.2019 07:14 9,6 C 8,3 C 7,8 C 99 % 988,7 hPa 0,0 l/m 0 min 0 min 0 W/m 12,9 km/h (3 Bft) 93,62 %
04.11.2019 07:16 9,6 C 8,3 C 7,8 C 99 % 988,6 hPa 0,0 l/m 0 min 0 min 0 W/m 12,9 km/h (3 Bft) 95,65 %
04.11.2019 07:18 9,6 C 8,3 C 7,8 C 99 % 988,7 hPa 0,0 l/m 0 min 0 min 0 W/m 16,1 km/h (3 Bft) 97,87 %
04.11.2019 07:20 9,6 C 8,3 C 7,8 C 99 % 988,6 hPa 0,0 l/m 0 min 0 min 0 W/m 12,9 km/h (3 Bft) 93,62 %
04.11.2019 07:22 9,5 C 8,3 C 7,8 C 98 % 988,6 hPa 0,0 l/m 0 min 0 min 0 W/m 6,4 km/h (2 Bft) 89,36 %
04.11.2019 07:24 9,5 C 8,3 C 7,8 C 98 % 988,6 hPa 0,0 l/m 0 min 0 min 0 W/m 3,2 km/h (1 Bft) 95,74 %
04.11.2019 07:26 9,5 C 8,3 C 7,8 C 98 % 988,6 hPa 0,0 l/m 0 min 0 min 0 W/m 6,4 km/h (2 Bft) 95,74 %
04.11.2019 07:28 9,4 C 8,3 C 7,8 C 98 % 988,6 hPa 0,0 l/m 0 min 0 min 0 W/m 3,2 km/h (1 Bft) 95,65 %
04.11.2019 07:30 9,4 C 8,3 C 7,8 C 98 % 988,6 hPa 0,0 l/m 0 min 0 min 0 W/m 6,4 km/h (2 Bft) 97,87 %
04.11.2019 07:32 9,4 C 8,3 C 7,8 C 98 % 988,6 hPa 0,0 l/m 0 min 0 min 0 W/m 3,2 km/h (1 Bft) 95,74 %
04.11.2019 07:34 9,4 C 8,3 C 7,8 C 98 % 988,6 hPa 0,0 l/m 0 min 0 min 2 W/m 0,0 km/h (0 Bft) 97,87 %
04.11.2019 07:36 9,4 C 8,3 C 7,8 C 98 % 988,6 hPa 0,0 l/m 0 min 0 min 5 W/m 12,9 km/h (3 Bft) 93,62 %
04.11.2019 07:38 9,4 C 7,8 C 7,8 C 98 % 988,6 hPa 0,0 l/m 0 min 0 min 5 W/m 3,2 km/h (1 Bft) 97,87 %
04.11.2019 07:40 9,3 C 7,8 C 7,8 C 98 % 988,6 hPa 0,0 l/m 0 min 0 min 7 W/m 3,2 km/h (1 Bft) 95,65 %
04.11.2019 07:42 9,3 C 7,8 C 7,8 C 98 % 988,6 hPa 0,0 l/m 0 min 0 min 8 W/m 3,2 km/h (1 Bft) 97,87 %
04.11.2019 07:44 9,3 C 7,8 C 7,8 C 98 % 988,7 hPa 0,0 l/m 0 min 0 min 9 W/m 6,4 km/h (2 Bft) 97,87 %
04.11.2019 07:46 9,3 C 7,8 C 7,8 C 98 % 988,7 hPa 0,0 l/m 0 min 0 min 10 W/m 6,4 km/h (2 Bft) 97,87 %
04.11.2019 07:48 9,3 C 7,8 C 7,8 C 98 % 988,7 hPa 0,0 l/m 0 min 0 min 12 W/m 3,2 km/h (1 Bft) 97,87 %
04.11.2019 07:50 9,3 C 7,8 C 7,8 C 98 % 988,7 hPa 0,0 l/m 0 min 0 min 12 W/m 3,2 km/h (1 Bft) 97,87 %
04.11.2019 07:52 9,2 C 7,8 C 7,8 C 98 % 988,7 hPa 0,0 l/m 0 min 0 min 12 W/m 6,4 km/h (2 Bft) 97,83 %
04.11.2019 07:54 9,2 C 7,8 C 7,8 C 98 % 988,7 hPa 0,0 l/m 0 min 0 min 13 W/m 0,0 km/h (0 Bft) 97,87 %
04.11.2019 07:56 9,2 C 7,8 C 7,8 C 98 % 988,7 hPa 0,0 l/m 0 min 0 min 14 W/m 3,2 km/h (1 Bft) 93,75 %
04.11.2019 07:58 9,2 C 7,8 C 7,8 C 98 % 988,7 hPa 0,0 l/m 0 min 0 min 16 W/m 6,4 km/h (2 Bft) 95,65 %
04.11.2019 08:00 9,2 C 7,8 C 7,8 C 98 % 988,7 hPa 0,0 l/m 0 min 0 min 18 W/m 3,2 km/h (1 Bft) 95,74 %
04.11.2019 08:02 9,2 C 7,8 C 7,8 C 98 % 988,7 hPa 0,0 l/m 0 min 0 min 18 W/m 3,2 km/h (1 Bft) 95,74 %
04.11.2019 08:04 9,1 C 7,8 C 7,2 C 98 % 988,7 hPa 0,0 l/m 0 min 0 min 16 W/m 0,0 km/h (0 Bft) 95,74 %
04.11.2019 08:06 9,1 C 7,8 C 7,2 C 98 % 988,7 hPa 0,0 l/m 0 min 0 min 17 W/m 6,4 km/h (2 Bft) 93,62 %
04.11.2019 08:08 9,1 C 7,8 C 7,2 C 98 % 988,6 hPa 0,0 l/m 0 min 0 min 19 W/m 6,4 km/h (2 Bft) 97,87 %
04.11.2019 08:10 9,1 C 7,8 C 7,2 C 98 % 988,6 hPa 0,0 l/m 0 min 0 min 18 W/m 3,2 km/h (1 Bft) 97,83 %
04.11.2019 08:12 9,1 C 7,8 C 7,2 C 98 % 988,7 hPa 0,0 l/m 0 min 0 min 20 W/m 6,4 km/h (2 Bft) 97,87 %
04.11.2019 08:14 9,1 C 7,8 C 7,2 C 98 % 988,6 hPa 0,0 l/m 0 min 0 min 24 W/m 6,4 km/h (2 Bft) 100,00 %
04.11.2019 08:16 9,1 C 7,8 C 7,8 C 98 % 988,6 hPa 0,0 l/m 0 min 0 min 25 W/m 6,4 km/h (2 Bft) 97,87 %
04.11.2019 08:18 9,0 C 7,8 C 7,8 C 98 % 988,5 hPa 0,0 l/m 0 min 0 min 26 W/m 12,9 km/h (3 Bft) 97,87 %
04.11.2019 08:20 9,0 C 8,3 C 7,8 C 98 % 988,6 hPa 0,0 l/m 0 min 0 min 29 W/m 6,4 km/h (2 Bft) 97,87 %
04.11.2019 08:22 9,0 C 8,3 C 7,8 C 98 % 988,6 hPa 0,0 l/m 0 min 0 min 32 W/m 6,4 km/h (2 Bft) 100,00 %
04.11.2019 08:24 9,0 C 8,3 C 7,8 C 98 % 988,6 hPa 0,0 l/m 0 min 0 min 31 W/m 3,2 km/h (1 Bft) 100,00 %
04.11.2019 08:26 9,0 C 8,3 C 7,8 C 98 % 988,6 hPa 0,0 l/m 0 min 0 min 29 W/m 3,2 km/h (1 Bft) 100,00 %
04.11.2019 08:28 9,0 C 8,3 C 7,8 C 98 % 988,6 hPa 0,0 l/m 0 min 0 min 28 W/m 3,2 km/h (1 Bft) 100,00 %
04.11.2019 08:30 9,0 C 8,3 C 7,8 C 98 % 988,6 hPa 0,0 l/m 0 min 0 min 31 W/m 0,0 km/h (0 Bft) 97,87 %
04.11.2019 08:32 8,9 C 8,3 C 7,8 C 98 % 988,6 hPa 0,0 l/m 0 min 0 min 36 W/m 0,0 km/h (0 Bft) 100,00 %
04.11.2019 08:34 8,9 C 8,3 C 7,8 C 98 % 988,6 hPa 0,0 l/m 0 min 0 min 39 W/m 6,4 km/h (2 Bft) 95,65 %
04.11.2019 08:36 8,9 C 8,3 C 7,8 C 98 % 988,6 hPa 0,0 l/m 0 min 0 min 39 W/m 6,4 km/h (2 Bft) 100,00 %
04.11.2019 08:38 9,0 C 8,3 C 7,8 C 98 % 988,6 hPa 0,0 l/m 0 min 0 min 36 W/m 6,4 km/h (2 Bft) 97,87 %
04.11.2019 08:40 8,9 C 8,3 C 7,8 C 98 % 988,7 hPa 0,0 l/m 0 min 0 min 37 W/m 6,4 km/h (2 Bft) 97,87 %
04.11.2019 08:42 9,0 C 8,3 C 7,8 C 98 % 988,7 hPa 0,0 l/m 0 min 0 min 43 W/m 3,2 km/h (1 Bft) 100,00 %
04.11.2019 08:44 9,0 C 8,3 C 7,8 C 98 % 988,7 hPa 0,0 l/m 0 min 0 min 43 W/m 16,1 km/h (3 Bft) 100,00 %
04.11.2019 08:46 9,0 C 8,3 C 7,8 C 98 % 988,7 hPa 0,0 l/m 0 min 0 min 44 W/m 6,4 km/h (2 Bft) 97,83 %
04.11.2019 08:48 9,0 C 8,3 C 7,8 C 98 % 988,7 hPa 0,0 l/m 0 min 0 min 47 W/m 12,9 km/h (3 Bft) 100,00 %
04.11.2019 08:50 9,0 C 8,3 C 7,8 C 98 % 988,7 hPa 0,0 l/m 0 min 0 min 49 W/m 6,4 km/h (2 Bft) 100,00 %
04.11.2019 08:52 9,0 C 8,3 C 7,8 C 98 % 988,7 hPa 0,0 l/m 0 min 0 min 52 W/m 3,2 km/h (1 Bft) 100,00 %
04.11.2019 08:54 9,0 C 8,9 C 7,8 C 98 % 988,8 hPa 0,0 l/m 0 min 0 min 53 W/m 3,2 km/h (1 Bft) 100,00 %
04.11.2019 08:56 9,1 C 8,3 C 7,8 C 98 % 988,7 hPa 0,0 l/m 0 min 0 min 51 W/m 6,4 km/h (2 Bft) 100,00 %
04.11.2019 08:58 9,1 C 8,3 C 7,8 C 98 % 988,7 hPa 0,0 l/m 0 min 0 min 47 W/m 6,4 km/h (2 Bft) 100,00 %
04.11.2019 09:00 9,1 C 8,3 C 7,8 C 98 % 988,7 hPa 0,0 l/m 0 min 0 min 46 W/m 12,9 km/h (3 Bft) 100,00 %
04.11.2019 09:02 9,1 C 8,3 C 7,8 C 98 % 988,7 hPa 0,0 l/m 0 min 0 min 44 W/m 6,4 km/h (2 Bft) 97,87 %
04.11.2019 09:04 9,1 C 8,3 C 7,8 C 98 % 988,6 hPa 0,0 l/m 0 min 0 min 45 W/m 16,1 km/h (3 Bft) 97,87 %
04.11.2019 09:06 9,1 C 8,3 C 7,8 C 98 % 988,7 hPa 0,0 l/m 0 min 0 min 47 W/m 12,9 km/h (3 Bft) 100,00 %
04.11.2019 09:08 9,1 C 8,3 C 7,8 C 98 % 988,6 hPa 0,0 l/m 0 min 0 min 45 W/m 6,4 km/h (2 Bft) 97,83 %
04.11.2019 09:10 9,1 C 8,3 C 7,8 C 98 % 988,6 hPa 0,0 l/m 0 min 0 min 39 W/m 12,9 km/h (3 Bft) 100,00 %
04.11.2019 09:12 9,1 C 8,3 C 7,8 C 98 % 988,6 hPa 0,0 l/m 0 min 0 min 36 W/m 6,4 km/h (2 Bft) 100,00 %
04.11.2019 09:14 9,1 C 8,3 C 7,8 C 98 % 988,6 hPa 0,0 l/m 0 min 2 min 44 W/m 6,4 km/h (2 Bft) 100,00 %
04.11.2019 09:16 9,1 C 8,3 C 7,8 C 98 % 988,6 hPa 0,0 l/m 0 min 2 min 62 W/m 6,4 km/h (2 Bft) 100,00 %
04.11.2019 09:18 9,1 C 8,9 C 7,8 C 98 % 988,6 hPa 0,0 l/m 2 min 0 min 134 W/m 3,2 km/h (1 Bft) 93,62 %
04.11.2019 09:20 9,1 C 9,4 C 7,8 C 98 % 988,7 hPa 0,0 l/m 2 min 0 min 225 W/m 6,4 km/h (2 Bft) 95,65 %
04.11.2019 09:22 9,2 C 10,0 C 8,3 C 98 % 988,7 hPa 0,0 l/m 2 min 0 min 246 W/m 3,2 km/h (1 Bft) 95,74 %
04.11.2019 09:24 9,2 C 10,6 C 8,3 C 99 % 988,7 hPa 0,0 l/m 2 min 0 min 277 W/m 3,2 km/h (1 Bft) 97,87 %
04.11.2019 09:26 9,2 C 11,1 C 8,9 C 99 % 988,7 hPa 0,0 l/m 2 min 0 min 282 W/m 6,4 km/h (2 Bft) 97,87 %
04.11.2019 09:28 9,3 C 11,1 C 8,9 C 99 % 988,7 hPa 0,0 l/m 2 min 0 min 314 W/m 6,4 km/h (2 Bft) 93,62 %
04.11.2019 09:30 9,4 C 11,7 C 8,9 C 99 % 988,7 hPa 0,0 l/m 2 min 0 min 320 W/m 6,4 km/h (2 Bft) 93,62 %
04.11.2019 09:32 9,6 C 11,7 C 9,4 C 99 % 988,7 hPa 0,0 l/m 2 min 0 min 324 W/m 3,2 km/h (1 Bft) 95,65 %
04.11.2019 09:34 9,6 C 11,7 C 9,4 C 99 % 988,6 hPa 0,0 l/m 2 min 0 min 332 W/m 6,4 km/h (2 Bft) 93,62 %
04.11.2019 09:36 9,7 C 12,2 C 9,4 C 99 % 988,6 hPa 0,0 l/m 2 min 0 min 342 W/m 12,9 km/h (3 Bft) 95,74 %
04.11.2019 09:38 9,8 C 12,2 C 9,4 C 99 % 988,6 hPa 0,0 l/m 2 min 0 min 348 W/m 12,9 km/h (3 Bft) 95,74 %
04.11.2019 09:40 9,9 C 12,2 C 9,4 C 99 % 988,6 hPa 0,0 l/m 2 min 0 min 355 W/m 16,1 km/h (3 Bft) 95,74 %
04.11.2019 09:42 10,0 C 11,7 C 9,4 C 99 % 988,6 hPa 0,0 l/m 2 min 0 min 327 W/m 12,9 km/h (3 Bft) 95,74 %
04.11.2019 09:44 10,1 C 11,7 C 9,4 C 99 % 988,6 hPa 0,0 l/m 2 min 0 min 277 W/m 12,9 km/h (3 Bft) 95,65 %
04.11.2019 09:46 10,1 C 11,7 C 9,4 C 99 % 988,7 hPa 0,0 l/m 2 min 0 min 243 W/m 6,4 km/h (2 Bft) 95,74 %
04.11.2019 09:48 10,2 C 11,1 C 9,4 C 99 % 988,6 hPa 0,0 l/m 2 min 0 min 154 W/m 6,4 km/h (2 Bft) 93,62 %
04.11.2019 09:50 10,2 C 11,1 C 9,4 C 99 % 988,7 hPa 0,0 l/m 0 min 0 min 135 W/m 6,4 km/h (2 Bft) 93,62 %
04.11.2019 09:52 10,3 C 10,6 C 9,4 C 99 % 988,7 hPa 0,0 l/m 0 min 0 min 123 W/m 12,9 km/h (3 Bft) 97,87 %
04.11.2019 09:54 10,3 C 11,1 C 9,4 C 99 % 988,7 hPa 0,0 l/m 0 min 0 min 125 W/m 6,4 km/h (2 Bft) 97,83 %
04.11.2019 09:56 10,3 C 11,1 C 8,9 C 99 % 988,7 hPa 0,0 l/m 0 min 0 min 116 W/m 19,3 km/h (3 Bft) 95,74 %
04.11.2019 09:58 10,3 C 11,1 C 8,9 C 99 % 988,7 hPa 0,0 l/m 0 min 0 min 95 W/m 9,7 km/h (2 Bft) 97,87 %
04.11.2019 10:00 10,3 C 11,1 C 8,9 C 99 % 988,7 hPa 0,0 l/m 0 min 0 min 86 W/m 12,9 km/h (3 Bft) 93,62 %
04.11.2019 10:02 10,3 C 10,6 C 8,9 C 99 % 988,7 hPa 0,0 l/m 0 min 0 min 70 W/m 12,9 km/h (3 Bft) 97,87 %
04.11.2019 10:04 10,3 C 10,6 C 8,9 C 98 % 988,7 hPa 0,0 l/m 0 min 0 min 58 W/m 16,1 km/h (3 Bft) 97,87 %
04.11.2019 10:06 10,3 C 10,6 C 8,9 C 98 % 988,6 hPa 0,0 l/m 0 min 0 min 57 W/m 12,9 km/h (3 Bft) 97,83 %
04.11.2019 10:08 10,3 C 10,6 C 8,9 C 98 % 988,7 hPa 0,0 l/m 0 min 0 min 94 W/m 6,4 km/h (2 Bft) 97,87 %
04.11.2019 10:10 10,3 C 10,6 C 8,9 C 98 % 988,7 hPa 0,0 l/m 0 min 0 min 82 W/m 12,9 km/h (3 Bft) 97,87 %
04.11.2019 10:12 10,3 C 10,6 C 8,9 C 98 % 988,6 hPa 0,0 l/m 0 min 0 min 69 W/m 12,9 km/h (3 Bft) 97,87 %
04.11.2019 10:14 10,3 C 10,6 C 8,9 C 98 % 988,6 hPa 0,0 l/m 0 min 0 min 68 W/m 12,9 km/h (3 Bft) 97,87 %
04.11.2019 10:16 10,4 C 10,6 C 8,9 C 98 % 988,6 hPa 0,0 l/m 0 min 0 min 69 W/m 3,2 km/h (1 Bft) 97,87 %
04.11.2019 10:18 10,4 C 10,6 C 8,9 C 97 % 988,6 hPa 0,0 l/m 0 min 0 min 74 W/m 16,1 km/h (3 Bft) 95,65 %
04.11.2019 10:20 10,4 C 10,6 C 8,9 C 97 % 988,6 hPa 0,0 l/m 0 min 0 min 87 W/m 6,4 km/h (2 Bft) 93,62 %
04.11.2019 10:22 10,4 C 10,6 C 8,9 C 97 % 988,6 hPa 0,0 l/m 0 min 0 min 106 W/m 16,1 km/h (3 Bft) 95,74 %
04.11.2019 10:24 10,4 C 11,1 C 8,9 C 97 % 988,6 hPa 0,0 l/m 0 min 0 min 122 W/m 6,4 km/h (2 Bft) 91,49 %
04.11.2019 10:26 10,4 C 11,1 C 8,9 C 97 % 988,6 hPa 0,0 l/m 0 min 0 min 117 W/m 9,7 km/h (2 Bft) 95,74 %
04.11.2019 10:28 10,4 C 11,1 C 8,9 C 97 % 988,6 hPa 0,0 l/m 0 min 0 min 109 W/m 12,9 km/h (3 Bft) 95,74 %
04.11.2019 10:30 10,4 C 11,1 C 8,9 C 96 % 988,6 hPa 0,0 l/m 0 min 0 min 103 W/m 12,9 km/h (3 Bft) 93,48 %
04.11.2019 10:32 10,4 C 11,1 C 8,9 C 96 % 988,6 hPa 0,0 l/m 0 min 0 min 97 W/m 12,9 km/h (3 Bft) 93,62 %
04.11.2019 10:34 10,4 C 11,1 C 8,9 C 96 % 988,6 hPa 0,0 l/m 0 min 0 min 99 W/m 12,9 km/h (3 Bft) 95,74 %
04.11.2019 10:36 10,5 C 11,1 C 8,9 C 96 % 988,6 hPa 0,0 l/m 0 min 0 min 111 W/m 12,9 km/h (3 Bft) 95,74 %
04.11.2019 10:38 10,5 C 11,1 C 8,9 C 96 % 988,6 hPa 0,0 l/m 0 min 0 min 116 W/m 22,5 km/h (4 Bft) 93,62 %
04.11.2019 10:40 10,6 C 11,1 C 8,9 C 96 % 988,6 hPa 0,0 l/m 0 min 0 min 118 W/m 16,1 km/h (3 Bft) 97,87 %
04.11.2019 10:42 10,6 C 11,1 C 9,4 C 95 % 988,6 hPa 0,0 l/m 0 min 0 min 119 W/m 12,9 km/h (3 Bft) 97,83 %
04.11.2019 10:44 10,6 C 11,1 C 9,4 C 95 % 988,6 hPa 0,0 l/m 0 min 0 min 128 W/m 12,9 km/h (3 Bft) 97,87 %
04.11.2019 10:46 10,6 C 11,7 C 9,4 C 95 % 988,5 hPa 0,0 l/m 0 min 0 min 152 W/m 3,2 km/h (1 Bft) 97,87 %
04.11.2019 10:48 10,7 C 11,7 C 9,4 C 95 % 988,6 hPa 0,0 l/m 2 min 0 min 188 W/m 16,1 km/h (3 Bft) 97,87 %
04.11.2019 10:50 10,7 C 12,2 C 9,4 C 95 % 988,5 hPa 0,0 l/m 2 min 0 min 204 W/m 12,9 km/h (3 Bft) 97,87 %
04.11.2019 10:52 10,8 C 12,2 C 10,0 C 94 % 988,5 hPa 0,0 l/m 2 min 0 min 189 W/m 12,9 km/h (3 Bft) 97,87 %
04.11.2019 10:54 10,8 C 12,2 C 9,4 C 94 % 988,5 hPa 0,0 l/m 0 min 0 min 172 W/m 16,1 km/h (3 Bft) 95,65 %
04.11.2019 10:56 10,8 C 12,2 C 9,4 C 94 % 988,5 hPa 0,0 l/m 0 min 0 min 160 W/m 12,9 km/h (3 Bft) 97,87 %
04.11.2019 10:58 10,9 C 12,2 C 10,0 C 94 % 988,6 hPa 0,0 l/m 0 min 0 min 164 W/m 22,5 km/h (4 Bft) 97,87 %
04.11.2019 11:00 10,9 C 12,2 C 10,0 C 94 % 988,6 hPa 0,0 l/m 0 min 0 min 173 W/m 12,9 km/h (3 Bft) 97,87 %
04.11.2019 11:02 11,0 C 12,2 C 10,6 C 94 % 988,6 hPa 0,0 l/m 2 min 0 min 184 W/m 16,1 km/h (3 Bft) 97,87 %
04.11.2019 11:04 11,1 C 12,2 C 10,6 C 93 % 988,6 hPa 0,0 l/m 2 min 0 min 189 W/m 19,3 km/h (3 Bft) 100,00 %
04.11.2019 11:06 11,1 C 12,8 C 10,6 C 93 % 988,6 hPa 0,0 l/m 2 min 0 min 202 W/m 16,1 km/h (3 Bft) 97,87 %
04.11.2019 11:08 11,1 C 12,8 C 10,6 C 93 % 988,5 hPa 0,0 l/m 2 min 0 min 210 W/m 16,1 km/h (3 Bft) 100,00 %
04.11.2019 11:10 11,2 C 12,8 C 11,1 C 93 % 988,5 hPa 0,0 l/m 2 min 0 min 201 W/m 6,4 km/h (2 Bft) 100,00 %
04.11.2019 11:12 11,2 C 12,8 C 11,1 C 92 % 988,5 hPa 0,0 l/m 2 min 0 min 203 W/m 12,9 km/h (3 Bft) 100,00 %
04.11.2019 11:14 11,3 C 12,8 C 11,1 C 92 % 988,5 hPa 0,0 l/m 2 min 0 min 188 W/m 16,1 km/h (3 Bft) 100,00 %
04.11.2019 11:16 11,3 C 12,2 C 11,1 C 92 % 988,5 hPa 0,0 l/m 0 min 0 min 167 W/m 16,1 km/h (3 Bft) 97,83 %
04.11.2019 11:18 11,3 C 12,2 C 11,1 C 92 % 988,5 hPa 0,0 l/m 0 min 0 min 147 W/m 22,5 km/h (4 Bft) 100,00 %
04.11.2019 11:20 11,4 C 12,2 C 10,6 C 91 % 988,5 hPa 0,0 l/m 0 min 0 min 136 W/m 12,9 km/h (3 Bft) 100,00 %
04.11.2019 11:22 11,4 C 12,2 C 10,6 C 91 % 988,5 hPa 0,0 l/m 0 min 0 min 138 W/m 16,1 km/h (3 Bft) 97,87 %
04.11.2019 11:24 11,4 C 12,2 C 11,1 C 91 % 988,5 hPa 0,0 l/m 0 min 0 min 146 W/m 12,9 km/h (3 Bft) 100,00 %
04.11.2019 11:26 11,5 C 12,2 C 11,1 C 91 % 988,5 hPa 0,0 l/m 0 min 0 min 154 W/m 16,1 km/h (3 Bft) 100,00 %
04.11.2019 11:28 11,6 C 12,2 C 11,1 C 90 % 988,4 hPa 0,0 l/m 0 min 0 min 161 W/m 19,3 km/h (3 Bft) 100,00 %
04.11.2019 11:30 11,6 C 12,2 C 11,1 C 90 % 988,4 hPa 0,0 l/m 0 min 0 min 166 W/m 16,1 km/h (3 Bft) 100,00 %
04.11.2019 11:32 11,6 C 12,2 C 11,1 C 90 % 988,4 hPa 0,0 l/m 0 min 0 min 158 W/m 19,3 km/h (3 Bft) 95,74 %
04.11.2019 11:34 11,6 C 12,2 C 11,1 C 90 % 988,4 hPa 0,0 l/m 0 min 0 min 151 W/m 16,1 km/h (3 Bft) 97,87 %
04.11.2019 11:36 11,7 C 12,2 C 11,1 C 90 % 988,4 hPa 0,0 l/m 0 min 0 min 146 W/m 19,3 km/h (3 Bft) 97,87 %
04.11.2019 11:38 11,7 C 12,2 C 11,1 C 90 % 988,4 hPa 0,0 l/m 0 min 0 min 150 W/m 16,1 km/h (3 Bft) 97,87 %
04.11.2019 11:40 11,7 C 12,2 C 11,1 C 90 % 988,4 hPa 0,0 l/m 0 min 0 min 155 W/m 16,1 km/h (3 Bft) 95,65 %
04.11.2019 11:42 11,7 C 12,2 C 11,1 C 89 % 988,4 hPa 0,0 l/m 0 min 0 min 158 W/m 19,3 km/h (3 Bft) 97,87 %
04.11.2019 11:44 11,8 C 12,2 C 11,1 C 89 % 988,4 hPa 0,0 l/m 0 min 0 min 163 W/m 16,1 km/h (3 Bft) 97,87 %
04.11.2019 11:46 11,8 C 12,2 C 11,1 C 89 % 988,4 hPa 0,0 l/m 0 min 0 min 172 W/m 19,3 km/h (3 Bft) 97,87 %
04.11.2019 11:48 11,8 C 12,2 C 11,1 C 89 % 988,4 hPa 0,0 l/m 0 min 0 min 175 W/m 12,9 km/h (3 Bft) 95,74 %
04.11.2019 11:50 11,9 C 12,2 C 11,1 C 89 % 988,4 hPa 0,0 l/m 0 min 0 min 171 W/m 19,3 km/h (3 Bft) 97,87 %
04.11.2019 11:52 11,9 C 12,2 C 11,1 C 89 % 988,4 hPa 0,0 l/m 0 min 0 min 165 W/m 12,9 km/h (3 Bft) 97,83 %
04.11.2019 11:54 11,9 C 12,2 C 11,1 C 89 % 988,4 hPa 0,0 l/m 0 min 0 min 151 W/m 19,3 km/h (3 Bft) 95,74 %
04.11.2019 11:56 11,9 C 12,2 C 11,1 C 89 % 988,4 hPa 0,0 l/m 0 min 0 min 133 W/m 25,7 km/h (4 Bft) 97,87 %
04.11.2019 11:58 11,9 C 12,2 C 11,1 C 89 % 988,4 hPa 0,0 l/m 0 min 0 min 128 W/m 16,1 km/h (3 Bft) 97,87 %
04.11.2019 12:00 12,0 C 12,2 C 11,1 C 89 % 988,4 hPa 0,0 l/m 0 min 0 min 128 W/m 16,1 km/h (3 Bft) 97,87 %
04.11.2019 12:02 12,0 C 12,2 C 11,1 C 89 % 988,4 hPa 0,0 l/m 0 min 0 min 127 W/m 16,1 km/h (3 Bft) 97,83 %
04.11.2019 12:04 12,1 C 11,7 C 10,6 C 89 % 988,3 hPa 0,0 l/m 0 min 0 min 125 W/m 16,1 km/h (3 Bft) 97,87 %
04.11.2019 12:08 12,1 C 11,1 C 10,6 C 89 % 988,2 hPa 0,0 l/m 0 min 0 min 128 W/m 12,9 km/h (3 Bft) 98,94 %
04.11.2019 12:10 12,1 C 11,7 C 10,6 C 89 % 988,2 hPa 0,0 l/m 0 min 0 min 145 W/m 6,4 km/h (2 Bft) 95,74 %
04.11.2019 12:12 12,1 C 11,7 C 10,6 C 89 % 988,2 hPa 0,0 l/m 0 min 0 min 169 W/m 6,4 km/h (2 Bft) 97,87 %
04.11.2019 12:14 12,1 C 12,2 C 10,6 C 89 % 988,2 hPa 0,0 l/m 0 min 0 min 164 W/m 6,4 km/h (2 Bft) 95,65 %
04.11.2019 12:16 12,1 C 12,2 C 10,6 C 89 % 988,2 hPa 0,0 l/m 0 min 0 min 139 W/m 6,4 km/h (2 Bft) 95,74 %
04.11.2019 12:18 12,1 C 12,2 C 10,6 C 89 % 988,2 hPa 0,0 l/m 0 min 0 min 125 W/m 3,2 km/h (1 Bft) 97,87 %
04.11.2019 12:20 12,1 C 12,2 C 11,1 C 88 % 988,2 hPa 0,0 l/m 0 min 0 min 132 W/m 6,4 km/h (2 Bft) 93,62 %
04.11.2019 12:22 12,0 C 12,2 C 11,1 C 88 % 988,2 hPa 0,0 l/m 0 min 0 min 126 W/m 12,9 km/h (3 Bft) 100,00 %
04.11.2019 12:24 12,1 C 12,2 C 11,1 C 88 % 988,2 hPa 0,0 l/m 0 min 0 min 115 W/m 6,4 km/h (2 Bft) 100,00 %
04.11.2019 12:26 12,1 C 12,2 C 11,1 C 88 % 988,2 hPa 0,0 l/m 0 min 0 min 101 W/m 12,9 km/h (3 Bft) 100,00 %
04.11.2019 12:28 12,1 C 12,2 C 11,1 C 88 % 988,2 hPa 0,0 l/m 0 min 0 min 99 W/m 16,1 km/h (3 Bft) 100,00 %
04.11.2019 12:30 12,1 C 12,2 C 11,1 C 88 % 988,2 hPa 0,0 l/m 0 min 0 min 102 W/m 6,4 km/h (2 Bft) 100,00 %
04.11.2019 12:32 12,1 C 12,2 C 11,1 C 88 % 988,2 hPa 0,0 l/m 0 min 0 min 106 W/m 6,4 km/h (2 Bft) 100,00 %
04.11.2019 12:34 12,1 C 12,2 C 11,1 C 88 % 988,2 hPa 0,0 l/m 0 min 0 min 114 W/m 12,9 km/h (3 Bft) 100,00 %
04.11.2019 12:36 12,1 C 12,2 C 11,1 C 88 % 988,2 hPa 0,0 l/m 0 min 0 min 106 W/m 12,9 km/h (3 Bft) 100,00 %
04.11.2019 12:38 12,1 C 12,2 C 11,1 C 88 % 988,2 hPa 0,0 l/m 0 min 0 min 93 W/m 6,4 km/h (2 Bft) 100,00 %
04.11.2019 12:40 12,1 C 12,2 C 11,1 C 88 % 988,2 hPa 0,0 l/m 0 min 0 min 91 W/m 6,4 km/h (2 Bft) 100,00 %
04.11.2019 12:42 12,1 C 12,2 C 11,1 C 88 % 988,2 hPa 0,0 l/m 0 min 0 min 87 W/m 12,9 km/h (3 Bft) 100,00 %
04.11.2019 12:44 12,1 C 11,7 C 11,1 C 88 % 988,3 hPa 0,0 l/m 0 min 0 min 75 W/m 12,9 km/h (3 Bft) 100,00 %
04.11.2019 12:46 12,1 C 11,7 C 11,1 C 88 % 988,4 hPa 0,0 l/m 0 min 0 min 65 W/m 16,1 km/h (3 Bft) 100,00 %
04.11.2019 12:48 12,2 C 11,7 C 11,1 C 88 % 988,3 hPa 0,0 l/m 0 min 0 min 58 W/m 12,9 km/h (3 Bft) 100,00 %
04.11.2019 12:50 12,2 C 11,7 C 11,1 C 88 % 988,3 hPa 0,0 l/m 0 min 0 min 60 W/m 6,4 km/h (2 Bft) 97,83 %
04.11.2019 12:52 12,2 C 11,7 C 11,1 C 88 % 988,3 hPa 0,0 l/m 0 min 0 min 61 W/m 12,9 km/h (3 Bft) 100,00 %
04.11.2019 12:54 12,2 C 11,7 C 10,6 C 88 % 988,4 hPa 0,0 l/m 0 min 0 min 63 W/m 6,4 km/h (2 Bft) 100,00 %
04.11.2019 12:56 12,2 C 11,7 C 10,6 C 88 % 988,3 hPa 0,0 l/m 0 min 0 min 73 W/m 12,9 km/h (3 Bft) 100,00 %
04.11.2019 12:58 12,2 C 11,7 C 11,1 C 88 % 988,2 hPa 0,0 l/m 0 min 0 min 78 W/m 12,9 km/h (3 Bft) 100,00 %
04.11.2019 13:00 12,2 C 11,7 C 11,1 C 88 % 988,2 hPa 0,0 l/m 0 min 0 min 64 W/m 6,4 km/h (2 Bft) 95,74 %
04.11.2019 13:02 12,2 C 11,7 C 11,1 C 88 % 988,3 hPa 0,0 l/m 0 min 0 min 57 W/m 12,9 km/h (3 Bft) 97,83 %
04.11.2019 13:04 12,2 C 11,7 C 11,1 C 88 % 988,3 hPa 0,0 l/m 0 min 0 min 61 W/m 6,4 km/h (2 Bft) 97,87 %
04.11.2019 13:06 12,2 C 11,7 C 11,1 C 88 % 988,3 hPa 0,0 l/m 0 min 0 min 66 W/m 3,2 km/h (1 Bft) 97,87 %
04.11.2019 13:08 12,2 C 11,7 C 11,1 C 89 % 988,3 hPa 0,0 l/m 0 min 0 min 73 W/m 12,9 km/h (3 Bft) 95,74 %
04.11.2019 13:10 12,2 C 11,7 C 11,1 C 89 % 988,2 hPa 0,0 l/m 0 min 0 min 77 W/m 6,4 km/h (2 Bft) 95,74 %
04.11.2019 13:12 12,2 C 11,7 C 11,1 C 89 % 988,2 hPa 0,0 l/m 0 min 0 min 80 W/m 6,4 km/h (2 Bft) 95,65 %
04.11.2019 13:14 12,2 C 11,7 C 11,1 C 89 % 988,3 hPa 0,0 l/m 0 min 0 min 84 W/m 12,9 km/h (3 Bft) 95,74 %
04.11.2019 13:16 12,2 C 11,7 C 11,1 C 89 % 988,3 hPa 0,0 l/m 0 min 0 min 78 W/m 12,9 km/h (3 Bft) 93,62 %
04.11.2019 13:18 12,2 C 11,7 C 11,1 C 89 % 988,3 hPa 0,0 l/m 0 min 0 min 72 W/m 12,9 km/h (3 Bft) 93,62 %
04.11.2019 13:20 12,1 C 11,7 C 10,6 C 89 % 988,4 hPa 0,0 l/m 0 min 2 min 71 W/m 22,5 km/h (4 Bft) 95,74 %
04.11.2019 13:22 12,1 C 11,7 C 10,6 C 89 % 988,3 hPa 0,0 l/m 0 min 2 min 70 W/m 12,9 km/h (3 Bft) 93,62 %
04.11.2019 13:24 12,1 C 11,1 C 10,6 C 89 % 988,4 hPa 0,0 l/m 0 min 2 min 64 W/m 16,1 km/h (3 Bft) 95,65 %
04.11.2019 13:26 12,1 C 11,1 C 10,6 C 89 % 988,4 hPa 0,0 l/m 0 min 0 min 63 W/m 16,1 km/h (3 Bft) 95,74 %
04.11.2019 13:28 12,1 C 11,1 C 10,6 C 89 % 988,4 hPa 0,0 l/m 0 min 2 min 60 W/m 19,3 km/h (3 Bft) 95,74 %
04.11.2019 13:30 12,1 C 11,1 C 10,0 C 90 % 988,4 hPa 0,0 l/m 0 min 2 min 56 W/m 16,1 km/h (3 Bft) 95,74 %
04.11.2019 13:32 12,1 C 10,6 C 10,0 C 90 % 988,4 hPa 0,0 l/m 0 min 2 min 61 W/m 12,9 km/h (3 Bft) 93,62 %
04.11.2019 13:34 12,1 C 10,6 C 9,4 C 90 % 988,4 hPa 0,0 l/m 0 min 2 min 60 W/m 12,9 km/h (3 Bft) 95,74 %
04.11.2019 13:36 12,1 C 10,6 C 9,4 C 90 % 988,4 hPa 0,0 l/m 0 min 2 min 54 W/m 22,5 km/h (4 Bft) 95,65 %
04.11.2019 13:38 12,0 C 10,0 C 9,4 C 90 % 988,4 hPa 0,0 l/m 0 min 2 min 42 W/m 19,3 km/h (3 Bft) 95,74 %
04.11.2019 13:40 12,0 C 10,0 C 9,4 C 90 % 988,4 hPa 0,2 l/m 0 min 2 min 38 W/m 19,3 km/h (3 Bft) 95,74 %
04.11.2019 13:42 11,9 C 10,0 C 9,4 C 90 % 988,4 hPa 0,0 l/m 0 min 2 min 37 W/m 19,3 km/h (3 Bft) 91,49 %
04.11.2019 13:44 11,9 C 9,4 C 9,4 C 90 % 988,4 hPa 0,0 l/m 0 min 2 min 39 W/m 22,5 km/h (4 Bft) 95,74 %
04.11.2019 13:46 11,8 C 9,4 C 9,4 C 90 % 988,4 hPa 0,0 l/m 0 min 2 min 42 W/m 16,1 km/h (3 Bft) 97,87 %
04.11.2019 13:48 11,8 C 9,4 C 9,4 C 91 % 988,4 hPa 0,0 l/m 0 min 2 min 46 W/m 12,9 km/h (3 Bft) 93,48 %
04.11.2019 13:50 11,8 C 9,4 C 9,4 C 91 % 988,5 hPa 0,0 l/m 0 min 2 min 51 W/m 12,9 km/h (3 Bft) 95,74 %
04.11.2019 13:52 11,8 C 9,4 C 9,4 C 91 % 988,5 hPa 0,0 l/m 0 min 2 min 54 W/m 16,1 km/h (3 Bft) 97,87 %
04.11.2019 13:54 11,7 C 9,4 C 9,4 C 91 % 988,5 hPa 0,2 l/m 0 min 2 min 60 W/m 16,1 km/h (3 Bft) 95,74 %
04.11.2019 13:56 11,7 C 9,4 C 9,4 C 92 % 988,5 hPa 0,0 l/m 0 min 2 min 81 W/m 12,9 km/h (3 Bft) 95,74 %
04.11.2019 13:58 11,7 C 9,4 C 9,4 C 92 % 988,5 hPa 0,0 l/m 0 min 2 min 108 W/m 22,5 km/h (4 Bft) 97,87 %
04.11.2019 14:00 11,6 C 9,4 C 9,4 C 92 % 988,6 hPa 0,2 l/m 0 min 2 min 105 W/m 16,1 km/h (3 Bft) 95,65 %
04.11.2019 14:02 11,6 C 10,0 C 9,4 C 92 % 988,5 hPa 0,0 l/m 0 min 2 min 93 W/m 19,3 km/h (3 Bft) 97,87 %
04.11.2019 14:04 11,6 C 9,4 C 9,4 C 92 % 988,6 hPa 0,0 l/m 0 min 2 min 78 W/m 22,5 km/h (4 Bft) 97,87 %
04.11.2019 14:06 11,6 C 9,4 C 9,4 C 93 % 988,6 hPa 0,0 l/m 0 min 2 min 64 W/m 19,3 km/h (3 Bft) 97,87 %
04.11.2019 14:08 11,5 C 9,4 C 9,4 C 93 % 988,6 hPa 0,0 l/m 0 min 2 min 57 W/m 12,9 km/h (3 Bft) 96,00 %
04.11.2019 14:10 11,4 C 9,4 C 9,4 C 93 % 988,6 hPa 0,2 l/m 0 min 2 min 52 W/m 19,3 km/h (3 Bft) 97,83 %
04.11.2019 14:12 11,4 C 9,4 C 9,4 C 93 % 988,6 hPa 0,0 l/m 0 min 2 min 49 W/m 16,1 km/h (3 Bft) 95,74 %
04.11.2019 14:14 11,4 C 9,4 C 9,4 C 93 % 988,6 hPa 0,2 l/m 0 min 2 min 47 W/m 19,3 km/h (3 Bft) 97,87 %
04.11.2019 14:16 11,3 C 9,4 C 9,4 C 94 % 988,6 hPa 0,0 l/m 0 min 2 min 34 W/m 16,1 km/h (3 Bft) 97,87 %
04.11.2019 14:18 11,3 C 9,4 C 9,4 C 94 % 988,6 hPa 0,0 l/m 0 min 2 min 30 W/m 16,1 km/h (3 Bft) 97,87 %
04.11.2019 14:20 11,3 C 9,4 C 9,4 C 94 % 988,6 hPa 0,0 l/m 0 min 2 min 29 W/m 19,3 km/h (3 Bft) 97,87 %
04.11.2019 14:22 11,3 C 9,4 C 9,4 C 94 % 988,6 hPa 0,2 l/m 0 min 2 min 29 W/m 12,9 km/h (3 Bft) 97,83 %
04.11.2019 14:24 11,2 C 9,4 C 9,4 C 94 % 988,6 hPa 0,0 l/m 0 min 2 min 33 W/m 12,9 km/h (3 Bft) 93,62 %
04.11.2019 14:26 11,2 C 9,4 C 9,4 C 94 % 988,6 hPa 0,2 l/m 0 min 2 min 24 W/m 6,4 km/h (2 Bft) 97,87 %
04.11.2019 14:28 11,2 C 9,4 C 9,4 C 95 % 988,6 hPa 0,0 l/m 0 min 2 min 29 W/m 3,2 km/h (1 Bft) 97,87 %
04.11.2019 14:30 11,2 C 9,4 C 9,4 C 95 % 988,6 hPa 0,0 l/m 0 min 2 min 39 W/m 16,1 km/h (3 Bft) 97,87 %
04.11.2019 14:32 11,2 C 9,4 C 9,4 C 95 % 988,6 hPa 0,0 l/m 0 min 2 min 53 W/m 12,9 km/h (3 Bft) 97,87 %
04.11.2019 14:34 11,2 C 9,4 C 9,4 C 95 % 988,7 hPa 0,2 l/m 0 min 2 min 58 W/m 12,9 km/h (3 Bft) 97,83 %
04.11.2019 14:36 11,1 C 10,0 C 9,4 C 95 % 988,7 hPa 0,0 l/m 0 min 2 min 58 W/m 12,9 km/h (3 Bft) 100,00 %
04.11.2019 14:38 11,1 C 10,0 C 9,4 C 95 % 988,7 hPa 0,0 l/m 0 min 2 min 62 W/m 16,1 km/h (3 Bft) 100,00 %
04.11.2019 14:40 11,1 C 9,4 C 9,4 C 95 % 988,7 hPa 0,2 l/m 0 min 2 min 54 W/m 12,9 km/h (3 Bft) 100,00 %
04.11.2019 14:42 11,1 C 10,0 C 9,4 C 95 % 988,7 hPa 0,0 l/m 0 min 2 min 45 W/m 6,4 km/h (2 Bft) 100,00 %
04.11.2019 14:44 11,1 C 10,0 C 9,4 C 95 % 988,7 hPa 0,0 l/m 0 min 2 min 35 W/m 12,9 km/h (3 Bft) 100,00 %
04.11.2019 14:46 11,1 C 9,4 C 9,4 C 96 % 988,7 hPa 0,2 l/m 0 min 2 min 26 W/m 12,9 km/h (3 Bft) 95,74 %
04.11.2019 14:48 11,1 C 9,4 C 9,4 C 96 % 988,8 hPa 0,0 l/m 0 min 2 min 24 W/m 12,9 km/h (3 Bft) 100,00 %
04.11.2019 14:50 11,1 C 9,4 C 9,4 C 96 % 988,8 hPa 0,0 l/m 0 min 2 min 29 W/m 16,1 km/h (3 Bft) 100,00 %
04.11.2019 14:52 11,1 C 9,4 C 9,4 C 96 % 988,8 hPa 0,2 l/m 0 min 2 min 28 W/m 16,1 km/h (3 Bft) 100,00 %
04.11.2019 14:54 11,0 C 9,4 C 9,4 C 96 % 988,8 hPa 0,2 l/m 0 min 2 min 25 W/m 12,9 km/h (3 Bft) 100,00 %
04.11.2019 14:56 11,0 C 9,4 C 9,4 C 96 % 988,8 hPa 0,2 l/m 0 min 2 min 26 W/m 16,1 km/h (3 Bft) 100,00 %
04.11.2019 14:58 10,9 C 9,4 C 9,4 C 96 % 988,8 hPa 0,0 l/m 0 min 2 min 30 W/m 16,1 km/h (3 Bft) 100,00 %
04.11.2019 15:00 10,9 C 9,4 C 9,4 C 96 % 988,8 hPa 0,2 l/m 0 min 2 min 36 W/m 16,1 km/h (3 Bft) 100,00 %
04.11.2019 15:02 10,9 C 9,4 C 9,4 C 96 % 988,9 hPa 0,0 l/m 0 min 2 min 41 W/m 16,1 km/h (3 Bft) 100,00 %
04.11.2019 15:04 10,9 C 9,4 C 9,4 C 96 % 988,9 hPa 0,2 l/m 0 min 2 min 39 W/m 6,4 km/h (2 Bft) 100,00 %
04.11.2019 15:06 10,9 C 9,4 C 9,4 C 96 % 988,9 hPa 0,0 l/m 0 min 2 min 37 W/m 12,9 km/h (3 Bft) 100,00 %
04.11.2019 15:08 10,9 C 9,4 C 9,4 C 96 % 988,9 hPa 0,0 l/m 0 min 2 min 29 W/m 12,9 km/h (3 Bft) 100,00 %
04.11.2019 15:10 10,9 C 9,4 C 9,4 C 96 % 989,0 hPa 0,0 l/m 0 min 2 min 42 W/m 6,4 km/h (2 Bft) 100,00 %
04.11.2019 15:12 10,9 C 10,0 C 9,4 C 96 % 989,0 hPa 0,2 l/m 0 min 2 min 50 W/m 6,4 km/h (2 Bft) 100,00 %
04.11.2019 15:14 10,9 C 10,0 C 9,4 C 97 % 989,0 hPa 0,0 l/m 0 min 2 min 55 W/m 6,4 km/h (2 Bft) 100,00 %
04.11.2019 15:16 10,9 C 10,0 C 9,4 C 97 % 989,0 hPa 0,0 l/m 0 min 2 min 61 W/m 16,1 km/h (3 Bft) 100,00 %
04.11.2019 15:18 10,9 C 10,0 C 9,4 C 97 % 989,0 hPa 0,0 l/m 0 min 2 min 54 W/m 12,9 km/h (3 Bft) 100,00 %
04.11.2019 15:20 10,9 C 10,0 C 9,4 C 97 % 989,1 hPa 0,0 l/m 0 min 2 min 68 W/m 6,4 km/h (2 Bft) 100,00 %
04.11.2019 15:22 10,9 C 10,0 C 9,4 C 97 % 989,1 hPa 0,0 l/m 0 min 2 min 71 W/m 6,4 km/h (2 Bft) 100,00 %
04.11.2019 15:24 10,9 C 10,0 C 9,4 C 97 % 989,1 hPa 0,0 l/m 0 min 2 min 70 W/m 3,2 km/h (1 Bft) 100,00 %
04.11.2019 15:26 10,9 C 10,0 C 9,4 C 97 % 989,1 hPa 0,0 l/m 0 min 0 min 79 W/m 6,4 km/h (2 Bft) 100,00 %
04.11.2019 15:28 10,9 C 10,0 C 9,4 C 97 % 989,2 hPa 0,0 l/m 2 min 0 min 103 W/m 9,7 km/h (2 Bft) 97,87 %
04.11.2019 15:30 10,9 C 10,6 C 9,4 C 97 % 989,2 hPa 0,0 l/m 0 min 0 min 88 W/m 3,2 km/h (1 Bft) 100,00 %
04.11.2019 15:32 10,9 C 10,6 C 10,0 C 97 % 989,2 hPa 0,0 l/m 0 min 0 min 87 W/m 9,7 km/h (2 Bft) 100,00 %
04.11.2019 15:34 10,9 C 10,6 C 10,0 C 97 % 989,2 hPa 0,0 l/m 2 min 0 min 99 W/m 6,4 km/h (2 Bft) 100,00 %
04.11.2019 15:36 11,0 C 10,6 C 10,0 C 97 % 989,3 hPa 0,0 l/m 2 min 0 min 122 W/m 12,9 km/h (3 Bft) 100,00 %
04.11.2019 15:38 11,1 C 10,6 C 10,0 C 97 % 989,3 hPa 0,0 l/m 2 min 0 min 135 W/m 12,9 km/h (3 Bft) 100,00 %
04.11.2019 15:40 11,1 C 11,1 C 10,0 C 97 % 989,3 hPa 0,0 l/m 2 min 0 min 142 W/m 16,1 km/h (3 Bft) 100,00 %
04.11.2019 15:42 11,1 C 11,1 C 10,0 C 97 % 989,2 hPa 0,0 l/m 2 min 0 min 138 W/m 6,4 km/h (2 Bft) 97,83 %
04.11.2019 15:44 11,1 C 11,1 C 10,0 C 97 % 989,3 hPa 0,0 l/m 2 min 0 min 88 W/m 12,9 km/h (3 Bft) 100,00 %
04.11.2019 15:46 11,2 C 10,6 C 10,0 C 98 % 989,3 hPa 0,0 l/m 0 min 0 min 57 W/m 12,9 km/h (3 Bft) 97,87 %
04.11.2019 15:48 11,2 C 10,6 C 10,0 C 98 % 989,2 hPa 0,0 l/m 0 min 0 min 50 W/m 3,2 km/h (1 Bft) 100,00 %
04.11.2019 15:50 11,2 C 10,6 C 10,0 C 98 % 989,3 hPa 0,0 l/m 0 min 0 min 48 W/m 0,0 km/h (0 Bft) 100,00 %
04.11.2019 15:52 11,2 C 10,6 C 10,0 C 98 % 989,3 hPa 0,0 l/m 0 min 0 min 41 W/m 6,4 km/h (2 Bft) 100,00 %
04.11.2019 15:54 11,2 C 10,6 C 10,0 C 98 % 989,2 hPa 0,0 l/m 0 min 0 min 33 W/m 6,4 km/h (2 Bft) 100,00 %
04.11.2019 15:56 11,2 C 10,6 C 10,0 C 98 % 989,3 hPa 0,0 l/m 0 min 0 min 31 W/m 3,2 km/h (1 Bft) 97,87 %
04.11.2019 15:58 11,2 C 10,0 C 9,4 C 98 % 989,2 hPa 0,0 l/m 0 min 0 min 30 W/m 3,2 km/h (1 Bft) 100,00 %
04.11.2019 16:00 11,2 C 10,0 C 9,4 C 98 % 989,2 hPa 0,0 l/m 0 min 0 min 29 W/m 0,0 km/h (0 Bft) 93,62 %
04.11.2019 16:02 11,2 C 10,0 C 9,4 C 98 % 989,2 hPa 0,0 l/m 0 min 0 min 28 W/m 3,2 km/h (1 Bft) 97,87 %
04.11.2019 16:04 11,2 C 10,0 C 9,4 C 98 % 989,2 hPa 0,0 l/m 0 min 0 min 28 W/m 0,0 km/h (0 Bft) 95,74 %
04.11.2019 16:06 11,2 C 10,0 C 9,4 C 98 % 989,2 hPa 0,0 l/m 0 min 0 min 29 W/m 0,0 km/h (0 Bft) 95,65 %
04.11.2019 16:08 11,2 C 10,0 C 9,4 C 98 % 989,2 hPa 0,0 l/m 0 min 0 min 30 W/m 0,0 km/h (0 Bft) 95,74 %
04.11.2019 16:10 11,2 C 10,0 C 9,4 C 98 % 989,2 hPa 0,0 l/m 0 min 0 min 30 W/m 0,0 km/h (0 Bft) 97,87 %
04.11.2019 16:12 11,2 C 10,0 C 9,4 C 98 % 989,2 hPa 0,0 l/m 0 min 0 min 32 W/m 0,0 km/h (0 Bft) 95,74 %
04.11.2019 16:14 11,2 C 10,0 C 9,4 C 98 % 989,3 hPa 0,0 l/m 0 min 0 min 34 W/m 0,0 km/h (0 Bft) 97,87 %
04.11.2019 16:16 11,2 C 10,0 C 9,4 C 98 % 989,3 hPa 0,0 l/m 0 min 0 min 32 W/m 0,0 km/h (0 Bft) 97,87 %
04.11.2019 16:18 11,2 C 10,0 C 9,4 C 98 % 989,3 hPa 0,0 l/m 0 min 0 min 26 W/m 0,0 km/h (0 Bft) 95,65 %
04.11.2019 16:20 11,1 C 10,0 C 9,4 C 98 % 989,3 hPa 0,0 l/m 0 min 0 min 23 W/m 0,0 km/h (0 Bft) 95,74 %
04.11.2019 16:22 11,1 C 10,0 C 9,4 C 98 % 989,3 hPa 0,0 l/m 0 min 0 min 19 W/m 0,0 km/h (0 Bft) 95,74 %
04.11.2019 16:24 11,1 C 10,0 C 9,4 C 98 % 989,3 hPa 0,0 l/m 0 min 0 min 16 W/m 0,0 km/h (0 Bft) 95,74 %
04.11.2019 16:26 11,1 C 10,0 C 9,4 C 98 % 989,3 hPa 0,0 l/m 0 min 0 min 17 W/m 0,0 km/h (0 Bft) 93,62 %
04.11.2019 16:28 11,1 C 10,0 C 9,4 C 98 % 989,3 hPa 0,0 l/m 0 min 0 min 21 W/m 0,0 km/h (0 Bft) 93,62 %
04.11.2019 16:30 11,1 C 10,0 C 9,4 C 98 % 989,4 hPa 0,0 l/m 0 min 0 min 24 W/m 0,0 km/h (0 Bft) 93,48 %
04.11.2019 16:32 11,1 C 10,0 C 9,4 C 98 % 989,4 hPa 0,0 l/m 0 min 0 min 20 W/m 0,0 km/h (0 Bft) 91,49 %
04.11.2019 16:34 11,1 C 10,0 C 9,4 C 98 % 989,3 hPa 0,0 l/m 0 min 0 min 19 W/m 0,0 km/h (0 Bft) 93,62 %
04.11.2019 16:36 11,1 C 10,0 C 9,4 C 98 % 989,3 hPa 0,0 l/m 0 min 0 min 18 W/m 0,0 km/h (0 Bft) 93,62 %
04.11.2019 16:38 11,0 C 10,0 C 9,4 C 98 % 989,3 hPa 0,0 l/m 0 min 0 min 17 W/m 0,0 km/h (0 Bft) 93,62 %
04.11.2019 16:40 11,0 C 10,0 C 9,4 C 98 % 989,3 hPa 0,0 l/m 0 min 0 min 16 W/m 0,0 km/h (0 Bft) 93,62 %
04.11.2019 16:42 11,0 C 10,0 C 9,4 C 98 % 989,3 hPa 0,0 l/m 0 min 0 min 14 W/m 0,0 km/h (0 Bft) 93,48 %
04.11.2019 16:44 11,0 C 9,4 C 9,4 C 98 % 989,3 hPa 0,0 l/m 0 min 0 min 14 W/m 0,0 km/h (0 Bft) 91,49 %
04.11.2019 16:46 10,9 C 9,4 C 8,9 C 98 % 989,3 hPa 0,0 l/m 0 min 0 min 13 W/m 0,0 km/h (0 Bft) 97,37 %
04.11.2019 16:48 10,9 C 9,4 C 8,9 C 98 % 989,3 hPa 0,0 l/m 0 min 0 min 12 W/m 0,0 km/h (0 Bft) 95,65 %
04.11.2019 16:50 10,9 C 9,4 C 8,9 C 98 % 989,3 hPa 0,0 l/m 0 min 0 min 11 W/m 0,0 km/h (0 Bft) 95,74 %
04.11.2019 16:52 10,9 C 9,4 C 8,9 C 98 % 989,3 hPa 0,0 l/m 0 min 0 min 10 W/m 0,0 km/h (0 Bft) 93,62 %
04.11.2019 16:54 10,9 C 9,4 C 8,9 C 98 % 989,3 hPa 0,0 l/m 0 min 0 min 8 W/m 0,0 km/h (0 Bft) 93,62 %
04.11.2019 16:56 10,9 C 9,4 C 8,9 C 98 % 989,3 hPa 0,0 l/m 0 min 0 min 7 W/m 0,0 km/h (0 Bft) 97,87 %
04.11.2019 16:58 10,8 C 9,4 C 8,9 C 98 % 989,4 hPa 0,0 l/m 0 min 0 min 6 W/m 0,0 km/h (0 Bft) 95,65 %
04.11.2019 17:00 10,8 C 9,4 C 8,9 C 98 % 989,3 hPa 0,0 l/m 0 min 0 min 5 W/m 0,0 km/h (0 Bft) 95,74 %
04.11.2019 17:02 10,8 C 9,4 C 8,9 C 98 % 989,4 hPa 0,0 l/m 0 min 0 min 5 W/m 0,0 km/h (0 Bft) 95,74 %
04.11.2019 17:04 10,8 C 9,4 C 8,9 C 98 % 989,4 hPa 0,0 l/m 0 min 0 min 3 W/m 0,0 km/h (0 Bft) 95,74 %
04.11.2019 17:06 10,8 C 9,4 C 8,9 C 98 % 989,4 hPa 0,0 l/m 0 min 0 min 0 W/m 0,0 km/h (0 Bft) 97,87 %
04.11.2019 17:08 10,7 C 9,4 C 8,9 C 98 % 989,4 hPa 0,0 l/m 0 min 0 min 0 W/m 0,0 km/h (0 Bft) 97,87 %
04.11.2019 17:10 10,7 C 9,4 C 8,9 C 98 % 989,5 hPa 0,0 l/m 0 min 0 min 0 W/m 0,0 km/h (0 Bft) 97,83 %
04.11.2019 17:12 10,7 C 9,4 C 8,9 C 98 % 989,5 hPa 0,0 l/m 0 min 0 min 0 W/m 0,0 km/h (0 Bft) 100,00 %
04.11.2019 17:14 10,7 C 8,9 C 8,9 C 98 % 989,6 hPa 0,0 l/m 0 min 0 min 0 W/m 0,0 km/h (0 Bft) 100,00 %
04.11.2019 17:16 10,6 C 8,9 C 8,9 C 98 % 989,6 hPa 0,0 l/m 0 min 0 min 0 W/m 0,0 km/h (0 Bft) 97,87 %
04.11.2019 17:18 10,6 C 8,9 C 8,9 C 98 % 989,6 hPa 0,0 l/m 0 min 0 min 0 W/m 0,0 km/h (0 Bft) 97,87 %
04.11.2019 17:20 10,6 C 8,9 C 8,9 C 98 % 989,6 hPa 0,0 l/m 0 min 0 min 0 W/m 0,0 km/h (0 Bft) 97,87 %
04.11.2019 17:22 10,6 C 8,9 C 8,9 C 98 % 989,6 hPa 0,0 l/m 0 min 0 min 0 W/m 0,0 km/h (0 Bft) 97,83 %
04.11.2019 17:24 10,6 C 8,9 C 8,3 C 98 % 989,6 hPa 0,0 l/m 0 min 0 min 0 W/m 0,0 km/h (0 Bft) 100,00 %
04.11.2019 17:26 10,6 C 8,9 C 8,3 C 98 % 989,7 hPa 0,0 l/m 0 min 0 min 0 W/m 0,0 km/h (0 Bft) 97,87 %
04.11.2019 17:28 10,5 C 8,9 C 8,3 C 98 % 989,7 hPa 0,0 l/m 0 min 0 min 0 W/m 0,0 km/h (0 Bft) 97,87 %
04.11.2019 17:30 10,5 C 8,9 C 8,3 C 98 % 989,8 hPa 0,0 l/m 0 min 0 min 0 W/m 0,0 km/h (0 Bft) 100,00 %
04.11.2019 17:32 10,4 C 8,9 C 8,3 C 98 % 989,8 hPa 0,0 l/m 0 min 0 min 0 W/m 3,2 km/h (1 Bft) 100,00 %
04.11.2019 17:34 10,4 C 8,9 C 8,3 C 98 % 989,9 hPa 0,0 l/m 0 min 0 min 0 W/m 3,2 km/h (1 Bft) 100,00 %
04.11.2019 17:36 10,4 C 8,9 C 8,3 C 98 % 989,9 hPa 0,0 l/m 0 min 0 min 0 W/m 0,0 km/h (0 Bft) 100,00 %
04.11.2019 17:38 10,3 C 8,9 C 8,3 C 98 % 989,8 hPa 0,0 l/m 0 min 0 min 0 W/m 0,0 km/h (0 Bft) 100,00 %
04.11.2019 17:40 10,3 C 8,9 C 8,3 C 98 % 989,8 hPa 0,0 l/m 0 min 0 min 0 W/m 0,0 km/h (0 Bft) 100,00 %
04.11.2019 17:42 10,3 C 8,9 C 8,3 C 98 % 989,8 hPa 0,0 l/m 0 min 0 min 0 W/m 0,0 km/h (0 Bft) 100,00 %
04.11.2019 17:44 10,2 C 8,9 C 8,3 C 98 % 989,9 hPa 0,0 l/m 0 min 0 min 0 W/m 0,0 km/h (0 Bft) 100,00 %
04.11.2019 17:46 10,2 C 8,9 C 8,3 C 98 % 989,9 hPa 0,0 l/m 0 min 0 min 0 W/m 0,0 km/h (0 Bft) 97,83 %
04.11.2019 17:48 10,2 C 8,9 C 8,3 C 98 % 990,0 hPa 0,0 l/m 0 min 0 min 0 W/m 0,0 km/h (0 Bft) 100,00 %
04.11.2019 17:50 10,2 C 8,9 C 8,3 C 98 % 990,0 hPa 0,0 l/m 0 min 0 min 0 W/m 0,0 km/h (0 Bft) 100,00 %
04.11.2019 17:52 10,1 C 8,3 C 8,3 C 98 % 990,0 hPa 0,0 l/m 0 min 0 min 0 W/m 0,0 km/h (0 Bft) 100,00 %
04.11.2019 17:54 10,1 C 8,3 C 8,3 C 98 % 990,0 hPa 0,0 l/m 0 min 0 min 0 W/m 0,0 km/h (0 Bft) 100,00 %
04.11.2019 17:56 10,1 C 8,3 C 8,3 C 98 % 990,1 hPa 0,0 l/m 0 min 0 min 0 W/m 0,0 km/h (0 Bft) 100,00 %
04.11.2019 17:58 10,1 C 8,3 C 8,3 C 98 % 990,1 hPa 0,0 l/m 0 min 0 min 0 W/m 0,0 km/h (0 Bft) 97,87 %
04.11.2019 18:00 10,0 C 8,3 C 8,3 C 98 % 990,1 hPa 0,0 l/m 0 min 0 min 0 W/m 0,0 km/h (0 Bft) 100,00 %
04.11.2019 18:02 9,9 C 8,3 C 7,8 C 98 % 990,1 hPa 0,0 l/m 0 min 0 min 0 W/m 0,0 km/h (0 Bft) 100,00 %
04.11.2019 18:04 9,9 C 8,3 C 7,8 C 98 % 990,1 hPa 0,0 l/m 0 min 0 min 0 W/m 0,0 km/h (0 Bft) 100,00 %
04.11.2019 18:08 9,9 C 8,3 C 7,8 C 98 % 990,1 hPa 0,0 l/m 0 min 0 min 0 W/m 0,0 km/h (0 Bft) 98,92 %
04.11.2019 18:10 9,8 C 8,3 C 7,8 C 98 % 990,1 hPa 0,0 l/m 0 min 0 min 0 W/m 0,0 km/h (0 Bft) 100,00 %
04.11.2019 18:12 9,8 C 8,3 C 7,8 C 98 % 990,1 hPa 0,0 l/m 0 min 0 min 0 W/m 0,0 km/h (0 Bft) 97,87 %
04.11.2019 18:14 9,8 C 8,3 C 7,8 C 98 % 990,1 hPa 0,0 l/m 0 min 0 min 0 W/m 0,0 km/h (0 Bft) 100,00 %
04.11.2019 18:16 9,7 C 8,3 C 7,8 C 98 % 990,1 hPa 0,0 l/m 0 min 0 min 0 W/m 0,0 km/h (0 Bft) 100,00 %
04.11.2019 18:18 9,7 C 8,3 C 7,8 C 98 % 990,1 hPa 0,0 l/m 0 min 0 min 0 W/m 0,0 km/h (0 Bft) 100,00 %
04.11.2019 18:20 9,7 C 8,3 C 7,8 C 98 % 990,1 hPa 0,0 l/m 0 min 0 min 0 W/m 0,0 km/h (0 Bft) 100,00 %
04.11.2019 18:22 9,7 C 8,3 C 7,8 C 98 % 990,2 hPa 0,0 l/m 0 min 0 min 0 W/m 0,0 km/h (0 Bft) 100,00 %
04.11.2019 18:24 9,6 C 7,8 C 7,8 C 98 % 990,2 hPa 0,0 l/m 0 min 0 min 0 W/m 0,0 km/h (0 Bft) 100,00 %
04.11.2019 18:26 9,6 C 7,8 C 7,8 C 98 % 990,2 hPa 0,0 l/m 0 min 0 min 0 W/m 0,0 km/h (0 Bft) 97,87 %
04.11.2019 18:28 9,6 C 7,8 C 7,8 C 98 % 990,2 hPa 0,0 l/m 0 min 0 min 0 W/m 0,0 km/h (0 Bft) 97,87 %
04.11.2019 18:30 9,6 C 7,8 C 7,8 C 98 % 990,2 hPa 0,0 l/m 0 min 0 min 0 W/m 0,0 km/h (0 Bft) 97,87 %
04.11.2019 18:32 9,5 C 7,8 C 7,8 C 98 % 990,2 hPa 0,0 l/m 0 min 0 min 0 W/m 0,0 km/h (0 Bft) 97,83 %
04.11.2019 18:34 9,5 C 7,8 C 7,8 C 98 % 990,2 hPa 0,0 l/m 0 min 0 min 0 W/m 0,0 km/h (0 Bft) 100,00 %
04.11.2019 18:38 9,4 C 8,3 C 7,8 C 98 % 990,2 hPa 0,0 l/m 0 min 0 min 0 W/m 0,0 km/h (0 Bft) 100,00 %
04.11.2019 18:40 9,4 C 8,3 C 7,8 C 98 % 990,2 hPa 0,0 l/m 0 min 0 min 0 W/m 0,0 km/h (0 Bft) 97,87 %
04.11.2019 18:42 9,4 C 8,3 C 7,8 C 98 % 990,2 hPa 0,0 l/m 0 min 0 min 0 W/m 0,0 km/h (0 Bft) 93,62 %
04.11.2019 18:44 9,4 C 8,3 C 7,8 C 98 % 990,2 hPa 0,0 l/m 0 min 0 min 0 W/m 0,0 km/h (0 Bft) 100,00 %
04.11.2019 18:46 9,3 C 8,3 C 7,8 C 98 % 990,2 hPa 0,0 l/m 0 min 0 min 0 W/m 0,0 km/h (0 Bft) 97,87 %
04.11.2019 18:48 9,3 C 8,3 C 7,8 C 98 % 990,3 hPa 0,0 l/m 0 min 0 min 0 W/m 0,0 km/h (0 Bft) 95,74 %
04.11.2019 18:50 9,3 C 8,3 C 7,8 C 98 % 990,2 hPa 0,0 l/m 0 min 0 min 0 W/m 0,0 km/h (0 Bft) 95,65 %
04.11.2019 18:52 9,3 C 8,3 C 7,8 C 98 % 990,2 hPa 0,0 l/m 0 min 0 min 0 W/m 0,0 km/h (0 Bft) 97,87 %
04.11.2019 18:54 9,3 C 8,3 C 7,8 C 98 % 990,2 hPa 0,0 l/m 0 min 0 min 0 W/m 0,0 km/h (0 Bft) 95,74 %
04.11.2019 18:56 9,3 C 8,3 C 7,8 C 98 % 990,2 hPa 0,0 l/m 0 min 0 min 0 W/m 0,0 km/h (0 Bft) 97,87 %
04.11.2019 18:58 9,3 C 8,3 C 7,8 C 98 % 990,2 hPa 0,0 l/m 0 min 0 min 0 W/m 3,2 km/h (1 Bft) 97,87 %
04.11.2019 19:00 9,3 C 8,3 C 7,8 C 98 % 990,3 hPa 0,0 l/m 0 min 0 min 0 W/m 12,9 km/h (3 Bft) 97,83 %
04.11.2019 19:02 9,3 C 8,3 C 7,8 C 98 % 990,2 hPa 0,0 l/m 0 min 0 min 0 W/m 6,4 km/h (2 Bft) 97,87 %
04.11.2019 19:04 9,3 C 8,3 C 7,8 C 98 % 990,2 hPa 0,0 l/m 0 min 0 min 0 W/m 3,2 km/h (1 Bft) 97,87 %
04.11.2019 19:06 9,3 C 8,3 C 7,8 C 98 % 990,2 hPa 0,0 l/m 0 min 0 min 0 W/m 3,2 km/h (1 Bft) 97,87 %
04.11.2019 19:08 9,3 C 8,3 C 7,8 C 98 % 990,2 hPa 0,0 l/m 0 min 0 min 0 W/m 3,2 km/h (1 Bft) 97,87 %
04.11.2019 19:10 9,3 C 8,3 C 7,8 C 98 % 990,2 hPa 0,0 l/m 0 min 0 min 0 W/m 6,4 km/h (2 Bft) 93,62 %
04.11.2019 19:12 9,3 C 8,3 C 7,8 C 98 % 990,2 hPa 0,0 l/m 0 min 0 min 0 W/m 0,0 km/h (0 Bft) 95,65 %
04.11.2019 19:14 9,3 C 8,3 C 8,3 C 98 % 990,2 hPa 0,0 l/m 0 min 0 min 0 W/m 6,4 km/h (2 Bft) 95,74 %
04.11.2019 19:16 9,3 C 8,9 C 8,3 C 98 % 990,2 hPa 0,0 l/m 0 min 0 min 0 W/m 6,4 km/h (2 Bft) 97,87 %
04.11.2019 19:18 9,3 C 8,9 C 8,3 C 98 % 990,3 hPa 0,0 l/m 0 min 0 min 0 W/m 3,2 km/h (1 Bft) 93,62 %
04.11.2019 19:20 9,4 C 8,9 C 8,3 C 98 % 990,2 hPa 0,0 l/m 0 min 0 min 0 W/m 6,4 km/h (2 Bft) 95,74 %
04.11.2019 19:22 9,4 C 8,9 C 8,3 C 98 % 990,3 hPa 0,0 l/m 0 min 0 min 0 W/m 3,2 km/h (1 Bft) 95,74 %
04.11.2019 19:24 9,4 C 8,9 C 8,3 C 98 % 990,3 hPa 0,0 l/m 0 min 0 min 0 W/m 3,2 km/h (1 Bft) 95,65 %
04.11.2019 19:26 9,4 C 8,9 C 8,3 C 98 % 990,3 hPa 0,0 l/m 0 min 0 min 0 W/m 3,2 km/h (1 Bft) 95,74 %
04.11.2019 19:28 9,4 C 8,9 C 8,3 C 98 % 990,4 hPa 0,0 l/m 0 min 0 min 0 W/m 3,2 km/h (1 Bft) 95,74 %
04.11.2019 19:30 9,4 C 8,9 C 8,3 C 98 % 990,3 hPa 0,0 l/m 0 min 0 min 0 W/m 6,4 km/h (2 Bft) 95,74 %
04.11.2019 19:32 9,4 C 8,9 C 8,3 C 98 % 990,4 hPa 0,0 l/m 0 min 0 min 0 W/m 6,4 km/h (2 Bft) 95,74 %
04.11.2019 19:34 9,5 C 8,9 C 8,3 C 98 % 990,4 hPa 0,0 l/m 0 min 0 min 0 W/m 3,2 km/h (1 Bft) 93,62 %
04.11.2019 19:36 9,5 C 8,9 C 8,3 C 98 % 990,4 hPa 0,0 l/m 0 min 0 min 0 W/m 0,0 km/h (0 Bft) 93,48 %
04.11.2019 19:38 9,5 C 8,9 C 8,3 C 98 % 990,4 hPa 0,0 l/m 0 min 0 min 0 W/m 3,2 km/h (1 Bft) 93,62 %
04.11.2019 19:40 9,5 C 8,9 C 8,3 C 98 % 990,4 hPa 0,0 l/m 0 min 0 min 0 W/m 3,2 km/h (1 Bft) 95,74 %
04.11.2019 19:42 9,5 C 8,9 C 8,3 C 98 % 990,4 hPa 0,0 l/m 0 min 0 min 0 W/m 0,0 km/h (0 Bft) 95,74 %
04.11.2019 19:44 9,6 C 8,9 C 8,3 C 98 % 990,4 hPa 0,0 l/m 0 min 0 min 0 W/m 0,0 km/h (0 Bft) 95,74 %
04.11.2019 19:46 9,6 C 8,9 C 8,3 C 99 % 990,4 hPa 0,0 l/m 0 min 0 min 0 W/m 3,2 km/h (1 Bft) 95,74 %
04.11.2019 19:48 9,6 C 8,9 C 8,3 C 99 % 990,4 hPa 0,0 l/m 0 min 0 min 0 W/m 6,4 km/h (2 Bft) 95,65 %
04.11.2019 19:50 9,6 C 8,9 C 8,3 C 99 % 990,4 hPa 0,0 l/m 0 min 0 min 0 W/m 0,0 km/h (0 Bft) 95,74 %
04.11.2019 19:52 9,6 C 8,9 C 8,3 C 99 % 990,4 hPa 0,0 l/m 0 min 0 min 0 W/m 3,2 km/h (1 Bft) 91,49 %
04.11.2019 19:54 9,6 C 8,9 C 8,3 C 99 % 990,4 hPa 0,0 l/m 0 min 0 min 0 W/m 0,0 km/h (0 Bft) 95,74 %
04.11.2019 19:56 9,6 C 8,9 C 7,8 C 99 % 990,4 hPa 0,0 l/m 0 min 0 min 0 W/m 3,2 km/h (1 Bft) 97,87 %
04.11.2019 19:58 9,6 C 8,9 C 7,8 C 99 % 990,4 hPa 0,0 l/m 0 min 0 min 0 W/m 6,4 km/h (2 Bft) 97,83 %
04.11.2019 20:00 9,6 C 8,9 C 7,8 C 99 % 990,4 hPa 0,0 l/m 0 min 0 min 0 W/m 6,4 km/h (2 Bft) 93,62 %
04.11.2019 20:02 9,6 C 8,9 C 7,8 C 98 % 990,4 hPa 0,0 l/m 0 min 0 min 0 W/m 6,4 km/h (2 Bft) 97,87 %
04.11.2019 20:04 9,6 C 8,9 C 7,8 C 99 % 990,4 hPa 0,0 l/m 0 min 0 min 0 W/m 0,0 km/h (0 Bft) 97,87 %
04.11.2019 20:06 9,6 C 8,9 C 7,8 C 99 % 990,4 hPa 0,0 l/m 0 min 0 min 0 W/m 6,4 km/h (2 Bft) 97,87 %
04.11.2019 20:08 9,5 C 8,9 C 7,8 C 98 % 990,4 hPa 0,0 l/m 0 min 0 min 0 W/m 3,2 km/h (1 Bft) 97,87 %
04.11.2019 20:10 9,5 C 8,3 C 7,8 C 98 % 990,4 hPa 0,0 l/m 0 min 0 min 0 W/m 3,2 km/h (1 Bft) 97,83 %
04.11.2019 20:12 9,5 C 8,3 C 7,8 C 98 % 990,3 hPa 0,0 l/m 0 min 0 min 0 W/m 3,2 km/h (1 Bft) 97,87 %
04.11.2019 20:14 9,4 C 8,9 C 7,8 C 98 % 990,3 hPa 0,0 l/m 0 min 0 min 0 W/m 6,4 km/h (2 Bft) 95,74 %
04.11.2019 20:16 9,4 C 8,9 C 7,8 C 98 % 990,4 hPa 0,0 l/m 0 min 0 min 0 W/m 3,2 km/h (1 Bft) 97,87 %
04.11.2019 20:18 9,4 C 8,9 C 7,8 C 98 % 990,5 hPa 0,0 l/m 0 min 0 min 0 W/m 3,2 km/h (1 Bft) 97,87 %
04.11.2019 20:20 9,4 C 8,9 C 7,8 C 98 % 990,5 hPa 0,0 l/m 0 min 0 min 0 W/m 19,3 km/h (3 Bft) 97,87 %
04.11.2019 20:22 9,4 C 8,9 C 7,8 C 98 % 990,5 hPa 0,0 l/m 0 min 0 min 0 W/m 16,1 km/h (3 Bft) 97,83 %
04.11.2019 20:24 9,4 C 8,9 C 7,8 C 98 % 990,5 hPa 0,0 l/m 0 min 2 min 0 W/m 12,9 km/h (3 Bft) 97,87 %
04.11.2019 20:26 9,4 C 8,9 C 7,8 C 98 % 990,5 hPa 0,0 l/m 0 min 0 min 0 W/m 16,1 km/h (3 Bft) 95,74 %
04.11.2019 20:28 9,4 C 8,9 C 7,8 C 98 % 990,5 hPa 0,0 l/m 0 min 0 min 0 W/m 6,4 km/h (2 Bft) 100,00 %
04.11.2019 20:30 9,4 C 8,9 C 7,8 C 98 % 990,5 hPa 0,0 l/m 0 min 2 min 0 W/m 6,4 km/h (2 Bft) 97,87 %
04.11.2019 20:32 9,4 C 8,9 C 7,8 C 98 % 990,5 hPa 0,0 l/m 0 min 0 min 0 W/m 6,4 km/h (2 Bft) 97,87 %
04.11.2019 20:34 9,4 C 8,9 C 7,8 C 98 % 990,5 hPa 0,0 l/m 0 min 0 min 0 W/m 0,0 km/h (0 Bft) 100,00 %
04.11.2019 20:36 9,4 C 8,3 C 7,8 C 98 % 990,5 hPa 0,0 l/m 0 min 0 min 0 W/m 0,0 km/h (0 Bft) 100,00 %
04.11.2019 20:38 9,4 C 8,3 C 7,8 C 98 % 990,5 hPa 0,0 l/m 0 min 0 min 0 W/m 0,0 km/h (0 Bft) 100,00 %
04.11.2019 20:40 9,4 C 8,9 C 7,8 C 98 % 990,5 hPa 0,0 l/m 0 min 0 min 0 W/m 3,2 km/h (1 Bft) 97,87 %
04.11.2019 20:42 9,4 C 8,9 C 7,8 C 98 % 990,5 hPa 0,0 l/m 0 min 0 min 0 W/m 3,2 km/h (1 Bft) 100,00 %
04.11.2019 20:44 9,4 C 8,9 C 7,8 C 98 % 990,5 hPa 0,0 l/m 0 min 0 min 0 W/m 3,2 km/h (1 Bft) 100,00 %
04.11.2019 20:46 9,4 C 8,9 C 7,8 C 98 % 990,5 hPa 0,0 l/m 0 min 0 min 0 W/m 3,2 km/h (1 Bft) 100,00 %
04.11.2019 20:48 9,4 C 8,9 C 7,8 C 98 % 990,7 hPa 0,0 l/m 0 min 0 min 0 W/m 12,9 km/h (3 Bft) 100,00 %
04.11.2019 20:50 9,4 C 8,9 C 7,8 C 98 % 990,7 hPa 0,0 l/m 0 min 0 min 0 W/m 6,4 km/h (2 Bft) 100,00 %
04.11.2019 20:52 9,4 C 8,9 C 7,8 C 98 % 990,7 hPa 0,0 l/m 0 min 0 min 0 W/m 6,4 km/h (2 Bft) 100,00 %
04.11.2019 20:54 9,4 C 8,9 C 7,8 C 98 % 990,7 hPa 0,0 l/m 0 min 0 min 0 W/m 3,2 km/h (1 Bft) 100,00 %
04.11.2019 20:56 9,4 C 8,9 C 7,8 C 98 % 990,7 hPa 0,0 l/m 0 min 0 min 0 W/m 6,4 km/h (2 Bft) 100,00 %
04.11.2019 20:58 9,4 C 8,9 C 7,8 C 98 % 990,7 hPa 0,0 l/m 0 min 0 min 0 W/m 12,9 km/h (3 Bft) 97,87 %
04.11.2019 21:00 9,4 C 8,9 C 7,8 C 98 % 990,7 hPa 0,0 l/m 0 min 0 min 0 W/m 6,4 km/h (2 Bft) 100,00 %
04.11.2019 21:02 9,4 C 8,9 C 7,8 C 98 % 990,7 hPa 0,0 l/m 0 min 0 min 0 W/m 3,2 km/h (1 Bft) 100,00 %
04.11.2019 21:04 9,4 C 8,9 C 7,8 C 98 % 990,7 hPa 0,0 l/m 0 min 0 min 0 W/m 6,4 km/h (2 Bft) 97,87 %
04.11.2019 21:06 9,4 C 8,9 C 7,8 C 98 % 990,7 hPa 0,0 l/m 0 min 0 min 0 W/m 6,4 km/h (2 Bft) 100,00 %
04.11.2019 21:08 9,4 C 8,9 C 7,8 C 98 % 990,7 hPa 0,0 l/m 0 min 0 min 0 W/m 3,2 km/h (1 Bft) 100,00 %
04.11.2019 21:10 9,4 C 8,9 C 7,8 C 98 % 990,7 hPa 0,0 l/m 0 min 0 min 0 W/m 3,2 km/h (1 Bft) 100,00 %
04.11.2019 21:12 9,4 C 8,9 C 7,8 C 98 % 990,8 hPa 0,0 l/m 0 min 0 min 0 W/m 3,2 km/h (1 Bft) 100,00 %
04.11.2019 21:14 9,4 C 8,9 C 7,8 C 98 % 990,8 hPa 0,0 l/m 0 min 0 min 0 W/m 6,4 km/h (2 Bft) 100,00 %
04.11.2019 21:16 9,4 C 8,9 C 7,8 C 98 % 990,8 hPa 0,0 l/m 0 min 0 min 0 W/m 12,9 km/h (3 Bft) 100,00 %
04.11.2019 21:18 9,4 C 8,9 C 7,8 C 98 % 990,8 hPa 0,0 l/m 0 min 0 min 0 W/m 12,9 km/h (3 Bft) 97,87 %
04.11.2019 21:20 9,4 C 8,9 C 7,8 C 98 % 990,8 hPa 0,0 l/m 0 min 0 min 0 W/m 6,4 km/h (2 Bft) 95,65 %
04.11.2019 21:22 9,4 C 8,9 C 7,8 C 98 % 990,8 hPa 0,0 l/m 0 min 0 min 0 W/m 16,1 km/h (3 Bft) 97,87 %
04.11.2019 21:24 9,4 C 8,9 C 7,8 C 98 % 990,8 hPa 0,0 l/m 0 min 0 min 0 W/m 12,9 km/h (3 Bft) 97,87 %
04.11.2019 21:26 9,3 C 8,9 C 7,8 C 98 % 990,8 hPa 0,0 l/m 0 min 0 min 0 W/m 12,9 km/h (3 Bft) 100,00 %
04.11.2019 21:28 9,3 C 8,9 C 7,8 C 98 % 990,8 hPa 0,0 l/m 0 min 0 min 0 W/m 3,2 km/h (1 Bft) 95,74 %
04.11.2019 21:30 9,3 C 8,9 C 7,8 C 98 % 990,8 hPa 0,0 l/m 0 min 0 min 0 W/m 6,4 km/h (2 Bft) 97,87 %
04.11.2019 21:32 9,3 C 8,9 C 7,8 C 98 % 990,9 hPa 0,0 l/m 0 min 0 min 0 W/m 6,4 km/h (2 Bft) 93,48 %
04.11.2019 21:34 9,3 C 8,9 C 7,8 C 98 % 990,8 hPa 0,0 l/m 0 min 0 min 0 W/m 6,4 km/h (2 Bft) 53,19 %
04.11.2019 21:36 9,3 C 8,9 C 7,8 C 98 % 990,8 hPa 0,0 l/m 0 min 0 min 0 W/m 6,4 km/h (2 Bft) 95,74 %
04.11.2019 21:38 9,3 C 8,9 C 7,8 C 98 % 990,9 hPa 0,0 l/m 0 min 0 min 0 W/m 3,2 km/h (1 Bft) 97,87 %
04.11.2019 21:40 9,3 C 8,9 C 7,8 C 98 % 990,9 hPa 0,0 l/m 0 min 0 min 0 W/m 6,4 km/h (2 Bft) 97,87 %
04.11.2019 21:42 9,3 C 8,9 C 7,8 C 98 % 990,9 hPa 0,0 l/m 0 min 0 min 0 W/m 3,2 km/h (1 Bft) 97,87 %
04.11.2019 21:44 9,3 C 8,9 C 7,8 C 98 % 990,9 hPa 0,0 l/m 0 min 0 min 0 W/m 6,4 km/h (2 Bft) 95,65 %
04.11.2019 21:46 9,3 C 8,9 C 7,8 C 98 % 991,0 hPa 0,0 l/m 0 min 0 min 0 W/m 6,4 km/h (2 Bft) 95,74 %
04.11.2019 21:48 9,3 C 8,9 C 7,8 C 98 % 991,1 hPa 0,0 l/m 0 min 0 min 0 W/m 12,9 km/h (3 Bft) 97,87 %
04.11.2019 21:50 9,2 C 8,9 C 7,8 C 98 % 991,1 hPa 0,0 l/m 0 min 0 min 0 W/m 3,2 km/h (1 Bft) 97,87 %
04.11.2019 21:52 9,2 C 8,9 C 7,8 C 98 % 991,1 hPa 0,0 l/m 0 min 0 min 0 W/m 0,0 km/h (0 Bft) 95,74 %
04.11.2019 21:54 9,2 C 8,3 C 7,8 C 98 % 991,1 hPa 0,0 l/m 0 min 0 min 0 W/m 3,2 km/h (1 Bft) 95,65 %
04.11.2019 21:56 9,2 C 8,3 C 7,8 C 98 % 991,2 hPa 0,0 l/m 0 min 0 min 0 W/m 0,0 km/h (0 Bft) 93,62 %
04.11.2019 21:58 9,2 C 8,3 C 7,2 C 98 % 991,2 hPa 0,0 l/m 0 min 0 min 0 W/m 3,2 km/h (1 Bft) 95,74 %
04.11.2019 22:00 9,2 C 8,3 C 7,2 C 98 % 991,1 hPa 0,0 l/m 0 min 0 min 0 W/m 0,0 km/h (0 Bft) 95,74 %
04.11.2019 22:02 9,2 C 8,3 C 7,2 C 98 % 991,2 hPa 0,0 l/m 0 min 0 min 0 W/m 16,1 km/h (3 Bft) 95,74 %
04.11.2019 22:04 9,2 C 8,3 C 7,2 C 98 % 991,1 hPa 0,0 l/m 0 min 0 min 0 W/m 6,4 km/h (2 Bft) 95,74 %
04.11.2019 22:06 9,2 C 8,3 C 7,2 C 98 % 991,1 hPa 0,0 l/m 0 min 0 min 0 W/m 3,2 km/h (1 Bft) 95,65 %
04.11.2019 22:08 9,2 C 8,3 C 7,2 C 98 % 991,2 hPa 0,0 l/m 0 min 0 min 0 W/m 6,4 km/h (2 Bft) 95,74 %
04.11.2019 22:10 9,1 C 8,3 C 7,2 C 98 % 991,2 hPa 0,0 l/m 0 min 0 min 0 W/m 6,4 km/h (2 Bft) 95,74 %
04.11.2019 22:12 9,1 C 8,3 C 7,2 C 98 % 991,3 hPa 0,0 l/m 0 min 0 min 0 W/m 12,9 km/h (3 Bft) 95,74 %
04.11.2019 22:14 9,1 C 8,3 C 7,2 C 98 % 991,2 hPa 0,0 l/m 0 min 0 min 0 W/m 12,9 km/h (3 Bft) 97,87 %
04.11.2019 22:16 9,1 C 8,3 C 7,2 C 98 % 991,3 hPa 0,0 l/m 0 min 0 min 0 W/m 6,4 km/h (2 Bft) 97,87 %
04.11.2019 22:18 9,1 C 8,3 C 7,2 C 98 % 991,2 hPa 0,0 l/m 0 min 0 min 0 W/m 6,4 km/h (2 Bft) 97,83 %
04.11.2019 22:20 9,1 C 8,3 C 7,2 C 98 % 991,2 hPa 0,0 l/m 0 min 0 min 0 W/m 12,9 km/h (3 Bft) 97,87 %
04.11.2019 22:22 9,1 C 8,3 C 7,2 C 97 % 991,2 hPa 0,0 l/m 0 min 0 min 0 W/m 16,1 km/h (3 Bft) 97,87 %
04.11.2019 22:24 9,1 C 8,3 C 7,2 C 97 % 991,2 hPa 0,0 l/m 0 min 0 min 0 W/m 6,4 km/h (2 Bft) 97,87 %
04.11.2019 22:26 9,1 C 8,3 C 7,2 C 97 % 991,2 hPa 0,0 l/m 0 min 0 min 0 W/m 3,2 km/h (1 Bft) 100,00 %
04.11.2019 22:28 9,1 C 8,3 C 7,2 C 97 % 991,2 hPa 0,0 l/m 0 min 0 min 0 W/m 3,2 km/h (1 Bft) 97,87 %
04.11.2019 22:30 9,1 C 8,3 C 7,2 C 97 % 991,2 hPa 0,0 l/m 0 min 0 min 0 W/m 12,9 km/h (3 Bft) 97,83 %
04.11.2019 22:32 9,1 C 8,3 C 7,2 C 97 % 991,2 hPa 0,0 l/m 0 min 0 min 0 W/m 6,4 km/h (2 Bft) 93,62 %
04.11.2019 22:34 9,0 C 8,3 C 7,2 C 97 % 991,1 hPa 0,0 l/m 0 min 0 min 0 W/m 0,0 km/h (0 Bft) 100,00 %
04.11.2019 22:36 9,1 C 8,3 C 7,2 C 97 % 991,2 hPa 0,0 l/m 0 min 0 min 0 W/m 3,2 km/h (1 Bft) 100,00 %
04.11.2019 22:38 9,1 C 8,3 C 7,2 C 97 % 991,2 hPa 0,0 l/m 0 min 0 min 0 W/m 3,2 km/h (1 Bft) 100,00 %
04.11.2019 22:40 9,1 C 8,3 C 7,2 C 97 % 991,2 hPa 0,0 l/m 0 min 0 min 0 W/m 0,0 km/h (0 Bft) 100,00 %
04.11.2019 22:42 9,1 C 8,3 C 7,2 C 97 % 991,2 hPa 0,0 l/m 0 min 0 min 0 W/m 3,2 km/h (1 Bft) 97,87 %
04.11.2019 22:44 9,1 C 8,3 C 7,2 C 97 % 991,2 hPa 0,0 l/m 0 min 0 min 0 W/m 3,2 km/h (1 Bft) 97,87 %
04.11.2019 22:46 9,0 C 8,3 C 7,2 C 97 % 991,3 hPa 0,0 l/m 0 min 0 min 0 W/m 3,2 km/h (1 Bft) 100,00 %
04.11.2019 22:48 9,0 C 8,3 C 7,2 C 97 % 991,3 hPa 0,0 l/m 0 min 0 min 0 W/m 0,0 km/h (0 Bft) 100,00 %
04.11.2019 22:50 9,0 C 8,3 C 7,2 C 97 % 991,3 hPa 0,0 l/m 0 min 0 min 0 W/m 0,0 km/h (0 Bft) 100,00 %
04.11.2019 22:52 9,0 C 8,3 C 7,2 C 97 % 991,3 hPa 0,0 l/m 0 min 0 min 0 W/m 0,0 km/h (0 Bft) 100,00 %
04.11.2019 22:54 9,0 C 8,3 C 7,2 C 97 % 991,3 hPa 0,0 l/m 0 min 0 min 0 W/m 0,0 km/h (0 Bft) 95,74 %
04.11.2019 22:56 9,0 C 8,3 C 7,2 C 97 % 991,4 hPa 0,0 l/m 0 min 0 min 0 W/m 0,0 km/h (0 Bft) 97,87 %
04.11.2019 22:58 9,0 C 8,3 C 7,2 C 97 % 991,3 hPa 0,0 l/m 0 min 0 min 0 W/m 3,2 km/h (1 Bft) 97,87 %
04.11.2019 23:00 9,0 C 8,3 C 7,2 C 97 % 991,4 hPa 0,0 l/m 0 min 0 min 0 W/m 6,4 km/h (2 Bft) 97,87 %
04.11.2019 23:02 9,0 C 8,3 C 7,2 C 97 % 991,4 hPa 0,0 l/m 0 min 0 min 0 W/m 12,9 km/h (3 Bft) 95,74 %
04.11.2019 23:04 9,0 C 8,3 C 7,2 C 97 % 991,4 hPa 0,0 l/m 0 min 0 min 0 W/m 6,4 km/h (2 Bft) 95,65 %
04.11.2019 23:06 9,0 C 8,3 C 7,2 C 97 % 991,5 hPa 0,0 l/m 0 min 0 min 0 W/m 6,4 km/h (2 Bft) 97,87 %
04.11.2019 23:08 9,0 C 8,3 C 7,2 C 97 % 991,4 hPa 0,0 l/m 0 min 0 min 0 W/m 12,9 km/h (3 Bft) 97,87 %
04.11.2019 23:10 9,0 C 8,3 C 7,2 C 97 % 991,6 hPa 0,0 l/m 0 min 0 min 0 W/m 3,2 km/h (1 Bft) 97,87 %
04.11.2019 23:12 8,9 C 8,3 C 7,2 C 97 % 991,5 hPa 0,0 l/m 0 min 0 min 0 W/m 3,2 km/h (1 Bft) 97,87 %
04.11.2019 23:14 8,9 C 8,3 C 7,2 C 97 % 991,5 hPa 0,0 l/m 0 min 0 min 0 W/m 6,4 km/h (2 Bft) 97,87 %
04.11.2019 23:16 9,0 C 8,3 C 7,2 C 97 % 991,5 hPa 0,0 l/m 0 min 0 min 0 W/m 6,4 km/h (2 Bft) 97,83 %
04.11.2019 23:18 8,9 C 8,3 C 7,2 C 97 % 991,5 hPa 0,0 l/m 0 min 0 min 0 W/m 12,9 km/h (3 Bft) 97,87 %
04.11.2019 23:20 9,0 C 8,3 C 7,2 C 97 % 991,5 hPa 0,0 l/m 0 min 0 min 0 W/m 6,4 km/h (2 Bft) 97,87 %
04.11.2019 23:22 9,0 C 8,3 C 7,2 C 97 % 991,5 hPa 0,0 l/m 0 min 0 min 0 W/m 3,2 km/h (1 Bft) 97,87 %
04.11.2019 23:24 9,0 C 8,3 C 7,2 C 97 % 991,5 hPa 0,0 l/m 0 min 0 min 0 W/m 3,2 km/h (1 Bft) 97,87 %
04.11.2019 23:26 9,0 C 8,3 C 7,2 C 97 % 991,5 hPa 0,0 l/m 0 min 0 min 0 W/m 12,9 km/h (3 Bft) 97,87 %
04.11.2019 23:28 9,0 C 8,3 C 7,2 C 97 % 991,6 hPa 0,0 l/m 0 min 0 min 0 W/m 12,9 km/h (3 Bft) 97,83 %
04.11.2019 23:30 9,0 C 8,3 C 7,2 C 97 % 991,6 hPa 0,0 l/m 0 min 0 min 0 W/m 3,2 km/h (1 Bft) 97,87 %
04.11.2019 23:32 9,0 C 8,3 C 7,2 C 97 % 991,6 hPa 0,0 l/m 0 min 0 min 0 W/m 6,4 km/h (2 Bft) 97,87 %
04.11.2019 23:34 9,0 C 8,3 C 7,2 C 97 % 991,6 hPa 0,0 l/m 0 min 0 min 0 W/m 6,4 km/h (2 Bft) 97,87 %
04.11.2019 23:36 9,0 C 8,3 C 7,2 C 97 % 991,6 hPa 0,0 l/m 0 min 0 min 0 W/m 6,4 km/h (2 Bft) 97,87 %
04.11.2019 23:38 9,0 C 8,3 C 7,2 C 97 % 991,6 hPa 0,0 l/m 0 min 0 min 0 W/m 3,2 km/h (1 Bft) 97,87 %
04.11.2019 23:40 9,0 C 8,3 C 7,2 C 97 % 991,7 hPa 0,0 l/m 0 min 2 min 0 W/m 12,9 km/h (3 Bft) 97,83 %
04.11.2019 23:42 9,0 C 8,3 C 7,2 C 97 % 991,7 hPa 0,0 l/m 0 min 2 min 0 W/m 12,9 km/h (3 Bft) 97,87 %
04.11.2019 23:44 9,0 C 7,8 C 7,2 C 97 % 991,7 hPa 0,0 l/m 0 min 2 min 0 W/m 6,4 km/h (2 Bft) 95,74 %
04.11.2019 23:46 9,0 C 7,8 C 7,2 C 97 % 991,8 hPa 0,0 l/m 0 min 2 min 0 W/m 12,9 km/h (3 Bft) 97,87 %
04.11.2019 23:48 9,0 C 7,8 C 7,2 C 97 % 991,8 hPa 0,0 l/m 0 min 0 min 0 W/m 6,4 km/h (2 Bft) 100,00 %
04.11.2019 23:50 9,0 C 7,8 C 7,2 C 97 % 991,8 hPa 0,0 l/m 0 min 0 min 0 W/m 6,4 km/h (2 Bft) 100,00 %
04.11.2019 23:52 9,0 C 7,8 C 7,2 C 97 % 991,8 hPa 0,2 l/m 0 min 0 min 0 W/m 6,4 km/h (2 Bft) 100,00 %
04.11.2019 23:54 9,1 C 7,8 C 7,2 C 97 % 991,8 hPa 0,0 l/m 0 min 0 min 0 W/m 6,4 km/h (2 Bft) 93,62 %
04.11.2019 23:56 9,1 C 7,8 C 7,2 C 97 % 991,9 hPa 0,0 l/m 0 min 0 min 0 W/m 6,4 km/h (2 Bft) 100,00 %
04.11.2019 23:58 9,1 C 7,8 C 7,2 C 97 % 992,0 hPa 0,0 l/m 0 min 0 min 0 W/m 3,2 km/h (1 Bft) 100,00 %
_ Min-Zeit 08:32 07:38 08:04 12:20 00:00 - - - - 01:22 00:42
Minimum _ 8,9 C 7,8 C 7,2 C 88 % 987,1 hPa - - - - 0,0 km/h (0 Bft) 52,94 %
_ Max-Zeit 12:48 11:06 11:10 05:26 23:58 00:10 09:18 00:08 09:40 05:54 00:00
Maximum _ 12,2 C 12,8 C 11,1 C 99 % 992,0 hPa 0,2 l/m 2 min 4 min 355 W/m 32,2 km/h
S-SO (5 Bft)
100,00 %
Durchschnitt _ 10,1 C 9,3 C 8,6 C 97 % 989,1 hPa #4,8 l/m #1:06 h #3:12 h 84 W/m 8,7 km/h (2 Bft) 97,38 %
© 2019 W. Hausmann